| time (UTC) | temp F | wind direction | speed MPH | gust MPH | rain 1hr in | rain 24hr in | rain mn in | humidity % | barometer mb |
| 20260831232229 | 67 | 262 | 5.0 | 15.0 | 0.00 | 0.00 | 0.00 | 100 | 959.3 |
| 20260831232026 | 67 | 261 | 6.0 | 15.0 | 0.00 | 0.00 | 0.00 | 100 | 959.4 |
| 20260831231925 | 67 | 258 | 6.0 | 13.0 | 0.00 | 0.00 | 0.00 | 100 | 959.5 |
| 20260831231823 | 67 | 259 | 6.0 | 13.0 | 0.00 | 0.00 | 0.00 | 100 | 959.4 |
| 20260831231621 | 67 | 266 | 5.0 | 10.0 | 0.00 | 0.00 | 0.00 | 100 | 959.5 |
| 20260831231417 | 67 | 278 | 7.0 | 16.0 | 0.00 | 0.00 | 0.00 | 100 | 959.4 |
| 20260831231316 | 67 | 275 | 6.0 | 16.0 | 0.00 | 0.00 | 0.00 | 100 | 959.4 |
| 20260831231214 | 67 | 271 | 6.0 | 16.0 | 0.00 | 0.00 | 0.00 | 100 | 959.4 |
| 20260831231011 | 67 | 248 | 4.0 | 12.0 | 0.00 | 0.00 | 0.00 | 100 | 959.5 |
| 20260831230808 | 67 | 263 | 5.0 | 12.0 | 0.00 | 0.00 | 0.00 | 100 | 959.4 |
| 20260831230708 | 67 | 271 | 5.0 | 9.0 | 0.00 | 0.00 | 0.00 | 100 | 959.5 |
| 20260831230605 | 68 | 283 | 6.0 | 12.0 | 0.00 | 0.00 | 0.00 | 100 | 959.4 |
| 20260831230402 | 68 | 272 | 6.0 | 14.0 | 0.00 | 0.00 | 0.00 | 100 | 959.4 |
| 20260831230159 | 67 | 262 | 8.0 | 24.0 | 0.00 | 0.00 | 0.00 | 100 | 959.3 |
| 20260831230057 | 67 | 255 | 7.0 | 24.0 | 0.00 | 0.00 | 0.00 | 100 | 959.4 |
| 20260831225955 | 67 | 260 | 8.0 | 24.0 | 0.00 | 0.00 | 0.00 | 100 | 959.3 |
| 20260831225752 | 67 | 259 | 6.0 | 13.0 | 0.00 | 0.00 | 0.00 | 100 | 959.3 |
| 20260831225549 | 67 | 260 | 5.0 | 13.0 | 0.00 | 0.00 | 0.00 | 100 | 959.3 |
| 20260831225448 | 67 | 257 | 6.0 | 12.0 | 0.00 | 0.00 | 0.00 | 100 | 959.3 |
| 20260831225346 | 67 | 256 | 6.0 | 13.0 | 0.00 | 0.00 | 0.00 | 100 | 959.3 |
| 20260831225142 | 67 | 258 | 4.0 | 13.0 | 0.00 | 0.00 | 0.00 | 100 | 959.3 |
| 20260831224939 | 66 | 282 | 4.0 | 7.0 | 0.00 | 0.00 | 0.00 | 100 | 959.3 |
| 20260831224838 | 66 | 284 | 5.0 | 10.0 | 0.00 | 0.00 | 0.00 | 100 | 959.2 |
| 20260831224736 | 66 | 284 | 5.0 | 10.0 | 0.00 | 0.00 | 0.00 | 100 | 959.2 |
| 20260831224532 | 66 | 276 | 4.0 | 10.0 | 0.00 | 0.00 | 0.00 | 100 | 959.2 |
| 20260831224329 | 65 | 246 | 3.0 | 8.0 | 0.00 | 0.00 | 0.00 | 100 | 959.2 |
| 20260831224229 | 64 | 245 | 2.0 | 7.0 | 0.00 | 0.00 | 0.00 | 100 | 959.1 |
| 20260831224126 | 64 | 248 | 2.0 | 7.0 | 0.00 | 0.00 | 0.00 | 100 | 959.2 |
| 20260831223924 | 64 | 257 | 2.0 | 7.0 | 0.00 | 0.00 | 0.00 | 100 | 959.2 |
| 20260831223719 | 62 | 247 | 2.0 | 7.0 | 0.00 | 0.00 | 0.00 | 100 | 959.1 |
| 20260831223619 | 62 | 230 | 1.0 | 3.0 | 0.00 | 0.00 | 0.00 | 100 | 959.1 |
| 20260831223516 | 62 | 227 | 1.0 | 3.0 | 0.00 | 0.00 | 0.00 | 100 | 959.0 |
| 20260831223313 | 62 | 210 | 1.0 | 2.0 | 0.00 | 0.00 | 0.00 | 100 | 959.0 |
| 20260831223110 | 62 | 213 | 1.0 | 2.0 | 0.00 | 0.00 | 0.00 | 100 | 959.0 |
| 20260831223010 | 61 | 217 | 1.0 | 2.0 | 0.00 | 0.00 | 0.00 | 100 | 959.0 |
| 20260831222908 | 62 | 214 | 1.0 | 3.0 | 0.00 | 0.00 | 0.00 | 100 | 959.0 |
| 20260831222705 | 62 | 0 | 1.0 | 3.0 | 0.00 | 0.00 | 0.00 | 100 | 959.0 |
| 20260831222502 | 62 | 0 | 1.0 | 3.0 | 0.00 | 0.00 | 0.00 | 100 | 959.0 |
| 20260831222402 | 62 | 0 | 1.0 | 3.0 | 0.00 | 0.00 | 0.00 | 100 | 959.0 |
| 20260831222300 | 62 | 0 | 0.0 | 2.0 | 0.00 | 0.00 | 0.00 | 100 | 959.0 |
| 20260831222056 | 62 | 0 | 0.0 | 2.0 | 0.00 | 0.00 | 0.00 | 100 | 959.1 |
| 20260831221854 | 62 | 0 | 0.0 | 2.0 | 0.00 | 0.00 | 0.00 | 100 | 959.0 |
| 20260831221753 | 62 | 0 | 0.0 | 2.0 | 0.00 | 0.00 | 0.00 | 100 | 959.0 |
| 20260831221650 | 62 | 0 | 1.0 | 2.0 | 0.00 | 0.00 | 0.00 | 100 | 958.9 |
| 20260831221448 | 62 | 0 | 1.0 | 3.0 | 0.00 | 0.00 | 0.00 | 100 | 959.0 |
| 20260831221244 | 62 | 0 | 1.0 | 4.0 | 0.00 | 0.00 | 0.00 | 100 | 959.0 |
| 20260831221144 | 62 | 0 | 1.0 | 4.0 | 0.00 | 0.00 | 0.00 | 100 | 959.1 |
| 20260831221041 | 62 | 0 | 1.0 | 4.0 | 0.00 | 0.00 | 0.00 | 100 | 959.1 |
| 20260831220838 | 61 | 0 | 1.0 | 4.0 | 0.00 | 0.00 | 0.00 | 100 | 959.0 |
| 20260831220635 | 61 | 0 | 1.0 | 3.0 | 0.00 | 0.00 | 0.00 | 100 | 959.0 |
| 20260831220535 | 61 | 0 | 1.0 | 3.0 | 0.00 | 0.00 | 0.00 | 100 | 958.9 |
| 20260831220433 | 61 | 0 | 1.0 | 5.0 | 0.00 | 0.00 | 0.00 | 100 | 958.9 |
| 20260831220229 | 62 | 206 | 1.0 | 5.0 | 0.00 | 0.00 | 0.00 | 100 | 959.0 |
| 20260831220026 | 62 | 207 | 1.0 | 4.0 | 0.00 | 0.00 | 0.00 | 100 | 959.0 |
| 20260831215925 | 62 | 208 | 1.0 | 3.0 | 0.00 | 0.00 | 0.00 | 100 | 958.9 |
| 20260831215823 | 62 | 0 | 1.0 | 5.0 | 0.00 | 0.00 | 0.00 | 100 | 959.0 |
| 20260831215620 | 62 | 193 | 1.0 | 5.0 | 0.00 | 0.00 | 0.00 | 100 | 958.9 |
| 20260831215416 | 63 | 200 | 1.0 | 6.0 | 0.00 | 0.00 | 0.00 | 100 | 959.0 |
| 20260831215316 | 63 | 205 | 1.0 | 6.0 | 0.00 | 0.00 | 0.00 | 100 | 959.1 |
| 20260831215213 | 63 | 211 | 2.0 | 6.0 | 0.00 | 0.00 | 0.00 | 100 | 959.1 |
| 20260831215011 | 63 | 0 | 1.0 | 4.0 | 0.00 | 0.00 | 0.00 | 100 | 959.0 |
| 20260831214807 | 63 | 0 | 1.0 | 4.0 | 0.00 | 0.00 | 0.00 | 100 | 959.1 |
| 20260831214604 | 63 | 0 | 1.0 | 4.0 | 0.00 | 0.00 | 0.00 | 100 | 959.2 |
| 20260831214401 | 64 | 0 | 1.0 | 4.0 | 0.00 | 0.00 | 0.00 | 100 | 959.1 |
| 20260831214158 | 63 | 0 | 1.0 | 4.0 | 0.00 | 0.00 | 0.00 | 100 | 959.1 |
| 20260831214057 | 63 | 0 | 1.0 | 4.0 | 0.00 | 0.00 | 0.00 | 100 | 959.1 |
| 20260831213955 | 63 | 0 | 0.0 | 2.0 | 0.00 | 0.00 | 0.00 | 100 | 959.1 |
| 20260831213752 | 63 | 0 | 0.0 | 2.0 | 0.00 | 0.00 | 0.00 | 100 | 959.1 |
| 20260831213548 | 63 | 194 | 1.0 | 3.0 | 0.00 | 0.00 | 0.00 | 100 | 959.1 |
| 20260831213447 | 63 | 199 | 1.0 | 3.0 | 0.00 | 0.00 | 0.00 | 100 | 959.1 |
| 20260831213345 | 63 | 207 | 0.0 | 3.0 | 0.00 | 0.00 | 0.00 | 100 | 959.1 |
| 20260831213142 | 64 | 0 | 0.0 | 1.0 | 0.00 | 0.00 | 0.00 | 100 | 959.1 |
| 20260831212939 | 64 | 0 | 0.0 | 2.0 | 0.00 | 0.00 | 0.00 | 100 | 959.1 |
| 20260831212838 | 64 | 206 | 0.0 | 2.0 | 0.00 | 0.00 | 0.00 | 100 | 959.1 |
| 20260831212736 | 64 | 211 | 1.0 | 2.0 | 0.00 | 0.00 | 0.00 | 100 | 959.1 |
| 20260831212533 | 64 | 241 | 1.0 | 2.0 | 0.00 | 0.00 | 0.00 | 100 | 959.0 |
| 20260831212329 | 64 | 305 | 1.0 | 3.0 | 0.00 | 0.00 | 0.00 | 100 | 959.0 |
| 20260831212229 | 64 | 307 | 2.0 | 3.0 | 0.00 | 0.00 | 0.00 | 100 | 959.1 |
| 20260831212126 | 64 | 306 | 2.0 | 3.0 | 0.00 | 0.00 | 0.00 | 100 | 959.0 |
| 20260831211922 | 64 | 314 | 2.0 | 5.0 | 0.00 | 0.00 | 0.00 | 100 | 959.0 |
| 20260831211719 | 64 | 319 | 3.0 | 8.0 | 0.00 | 0.00 | 0.00 | 100 | 958.9 |
| 20260831211619 | 64 | 319 | 2.0 | 8.0 | 0.00 | 0.00 | 0.00 | 100 | 958.9 |
| 20260831211423 | 64 | 312 | 2.0 | 8.0 | 0.00 | 0.00 | 0.00 | 100 | 958.9 |
| 20260831211221 | 64 | 304 | 3.0 | 6.0 | 0.00 | 0.00 | 0.00 | 100 | 958.9 |
| 20260831211120 | 64 | 299 | 3.0 | 7.0 | 0.00 | 0.00 | 0.00 | 100 | 958.9 |
| 20260831211018 | 64 | 289 | 3.0 | 7.0 | 0.00 | 0.00 | 0.00 | 100 | 958.9 |
| 20260831210814 | 64 | 282 | 2.0 | 7.0 | 0.00 | 0.00 | 0.00 | 100 | 958.9 |
| 20260831210611 | 63 | 269 | 2.0 | 4.0 | 0.00 | 0.00 | 0.00 | 100 | 958.8 |
| 20260831210511 | 63 | 263 | 1.0 | 3.0 | 0.00 | 0.00 | 0.00 | 100 | 958.8 |
| 20260831210408 | 62 | 237 | 1.0 | 4.0 | 0.00 | 0.00 | 0.00 | 100 | 958.8 |
| 20260831210205 | 62 | 229 | 1.0 | 2.0 | 0.00 | 0.00 | 0.00 | 100 | 958.8 |
| 20260831210002 | 62 | 0 | 0.0 | 3.0 | 0.00 | 0.00 | 0.00 | 100 | 958.8 |
| 20260831205847 | 62 | 0 | 0.0 | 2.0 | 0.00 | 0.00 | 0.00 | 100 | 958.7 |
| 20260831205744 | 62 | 0 | 0.0 | 2.0 | 0.00 | 0.00 | 0.00 | 100 | 958.7 |
| 20260831205541 | 62 | 0 | 0.0 | 2.0 | 0.00 | 0.00 | 0.00 | 100 | 958.8 |
| 20260831205339 | 62 | 0 | 0.0 | 2.0 | 0.00 | 0.00 | 0.00 | 100 | 958.7 |
| 20260831205237 | 62 | 0 | 0.0 | 2.0 | 0.00 | 0.00 | 0.00 | 100 | 958.7 |
| 20260831205135 | 62 | 0 | 0.0 | 2.0 | 0.00 | 0.00 | 0.00 | 100 | 958.7 |
| 20260831204932 | 62 | 0 | 0.0 | 2.0 | 0.00 | 0.00 | 0.00 | 100 | 958.6 |
| 20260831204730 | 62 | 0 | 0.0 | 2.0 | 0.00 | 0.00 | 0.00 | 100 | 958.7 |
| 20260831204629 | 62 | 0 | 0.0 | 3.0 | 0.00 | 0.00 | 0.00 | 100 | 958.5 |
| 20260831204527 | 62 | 0 | 0.0 | 3.0 | 0.00 | 0.00 | 0.00 | 100 | 958.4 |
| 20260831204325 | 62 | 0 | 0.0 | 3.0 | 0.00 | 0.00 | 0.00 | 100 | 958.5 |
| 20260831204121 | 62 | 209 | 1.0 | 3.0 | 0.00 | 0.00 | 0.00 | 100 | 958.5 |
| 20260831204021 | 62 | 207 | 1.0 | 3.0 | 0.00 | 0.00 | 0.00 | 100 | 958.5 |
| 20260831203919 | 62 | 208 | 1.0 | 3.0 | 0.00 | 0.00 | 0.00 | 100 | 958.5 |
| 20260831203715 | 62 | 210 | 1.0 | 2.0 | 0.00 | 0.00 | 0.00 | 100 | 958.4 |
| 20260831203512 | 62 | 213 | 1.0 | 2.0 | 0.00 | 0.00 | 0.00 | 100 | 958.3 |
| 20260831203412 | 62 | 208 | 1.0 | 2.0 | 0.00 | 0.00 | 0.00 | 100 | 958.3 |
| 20260831203309 | 63 | 197 | 1.0 | 3.0 | 0.00 | 0.00 | 0.00 | 100 | 958.3 |
| 20260831203106 | 63 | 203 | 1.0 | 3.0 | 0.00 | 0.00 | 0.00 | 100 | 958.4 |
| 20260831202903 | 62 | 217 | 1.0 | 3.0 | 0.00 | 0.00 | 0.00 | 100 | 958.3 |
| 20260831202803 | 62 | 217 | 1.0 | 3.0 | 0.00 | 0.00 | 0.00 | 100 | 958.4 |
| 20260831202700 | 63 | 197 | 1.0 | 2.0 | 0.00 | 0.00 | 0.00 | 100 | 958.4 |
| 20260831202457 | 62 | 195 | 1.0 | 2.0 | 0.00 | 0.00 | 0.00 | 100 | 958.3 |
| 20260831202253 | 62 | 199 | 1.0 | 2.0 | 0.00 | 0.00 | 0.00 | 100 | 958.4 |
| 20260831202153 | 62 | 201 | 1.0 | 2.0 | 0.00 | 0.00 | 0.00 | 100 | 958.4 |
| 20260831202050 | 62 | 203 | 1.0 | 4.0 | 0.00 | 0.00 | 0.00 | 100 | 958.4 |
| 20260831201848 | 62 | 191 | 2.0 | 4.0 | 0.00 | 0.00 | 0.00 | 100 | 958.4 |
| 20260831201644 | 62 | 182 | 2.0 | 4.0 | 0.00 | 0.00 | 0.00 | 100 | 958.4 |
| 20260831201543 | 62 | 182 | 2.0 | 3.0 | 0.00 | 0.00 | 0.00 | 100 | 958.4 |
| 20260831201441 | 63 | 184 | 1.0 | 3.0 | 0.00 | 0.00 | 0.00 | 100 | 958.5 |
| 20260831201238 | 63 | 187 | 1.0 | 3.0 | 0.00 | 0.00 | 0.00 | 100 | 958.4 |
| 20260831201035 | 63 | 152 | 2.0 | 4.0 | 0.00 | 0.00 | 0.00 | 100 | 958.4 |
| 20260831200934 | 63 | 148 | 2.0 | 4.0 | 0.00 | 0.00 | 0.00 | 100 | 958.4 |
| 20260831200832 | 63 | 143 | 2.0 | 4.0 | 0.00 | 0.00 | 0.00 | 100 | 958.4 |
| 20260831200629 | 64 | 129 | 2.0 | 3.0 | 0.00 | 0.00 | 0.00 | 100 | 958.4 |
| 20260831200426 | 64 | 142 | 1.0 | 2.0 | 0.00 | 0.00 | 0.00 | 100 | 958.3 |
| 20260831200326 | 63 | 162 | 1.0 | 2.0 | 0.00 | 0.00 | 0.00 | 100 | 958.3 |
| 20260831200223 | 63 | 185 | 1.0 | 2.0 | 0.00 | 0.00 | 0.00 | 100 | 958.3 |
| 20260831200021 | 63 | 188 | 1.0 | 3.0 | 0.00 | 0.00 | 0.00 | 100 | 958.2 |
| 20260831195818 | 63 | 203 | 1.0 | 3.0 | 0.00 | 0.00 | 0.00 | 100 | 958.3 |
| 20260831195718 | 63 | 0 | 0.0 | 3.0 | 0.00 | 0.00 | 0.00 | 100 | 958.2 |
| 20260831195615 | 64 | 0 | 1.0 | 3.0 | 0.00 | 0.00 | 0.00 | 100 | 958.1 |
| 20260831195412 | 64 | 174 | 2.0 | 4.0 | 0.00 | 0.00 | 0.00 | 100 | 958.2 |
| 20260831195208 | 64 | 181 | 2.0 | 4.0 | 0.00 | 0.00 | 0.00 | 100 | 958.1 |
| 20260831195005 | 64 | 178 | 2.0 | 4.0 | 0.00 | 0.00 | 0.00 | 100 | 958.1 |
| 20260831194802 | 64 | 167 | 2.0 | 4.0 | 0.00 | 0.00 | 0.00 | 100 | 958.1 |
| 20260831194559 | 65 | 163 | 1.0 | 3.0 | 0.00 | 0.00 | 0.00 | 100 | 958.1 |
| 20260831194458 | 65 | 0 | 1.0 | 3.0 | 0.00 | 0.00 | 0.00 | 100 | 958.1 |
| 20260831194356 | 65 | 43 | 1.0 | 3.0 | 0.00 | 0.00 | 0.00 | 100 | 958.2 |
| 20260831194153 | 65 | 27 | 1.0 | 3.0 | 0.00 | 0.00 | 0.00 | 100 | 958.1 |
| 20260831193950 | 65 | 0 | 1.0 | 4.0 | 0.00 | 0.00 | 0.00 | 100 | 958.1 |
| 20260831193849 | 65 | 0 | 1.0 | 4.0 | 0.00 | 0.00 | 0.00 | 100 | 958.2 |
| 20260831193746 | 65 | 234 | 1.0 | 4.0 | 0.00 | 0.00 | 0.00 | 100 | 958.2 |
| 20260831193544 | 65 | 210 | 1.0 | 4.0 | 0.00 | 0.00 | 0.00 | 100 | 958.1 |
| 20260831193340 | 65 | 209 | 2.0 | 4.0 | 0.00 | 0.00 | 0.00 | 100 | 958.0 |
| 20260831193239 | 65 | 226 | 1.0 | 3.0 | 0.00 | 0.00 | 0.00 | 100 | 958.1 |
| 20260831193137 | 65 | 232 | 1.0 | 3.0 | 0.00 | 0.00 | 0.00 | 100 | 958.0 |
| 20260831192934 | 65 | 237 | 1.0 | 3.0 | 0.00 | 0.00 | 0.00 | 100 | 958.1 |
| 20260831192731 | 65 | 222 | 1.0 | 3.0 | 0.00 | 0.00 | 0.00 | 100 | 957.9 |
| 20260831192630 | 65 | 220 | 1.0 | 3.0 | 0.00 | 0.00 | 0.00 | 100 | 957.9 |
| 20260831192528 | 65 | 217 | 1.0 | 3.0 | 0.00 | 0.00 | 0.00 | 100 | 957.9 |
| 20260831192325 | 65 | 0 | 0.0 | 2.0 | 0.00 | 0.00 | 0.00 | 100 | 958.1 |
| 20260831192122 | 65 | 252 | 1.0 | 2.0 | 0.00 | 0.00 | 0.00 | 100 | 958.1 |
| 20260831192021 | 66 | 247 | 1.0 | 2.0 | 0.00 | 0.00 | 0.00 | 100 | 958.1 |
| 20260831191919 | 66 | 248 | 1.0 | 2.0 | 0.00 | 0.00 | 0.00 | 100 | 958.0 |
| 20260831191716 | 65 | 244 | 1.0 | 2.0 | 0.00 | 0.00 | 0.00 | 100 | 958.0 |
| 20260831191513 | 65 | 0 | 0.0 | 2.0 | 0.00 | 0.00 | 0.00 | 100 | 957.9 |
| 20260831191412 | 65 | 0 | 1.0 | 3.0 | 0.00 | 0.00 | 0.00 | 100 | 957.9 |
| 20260831191310 | 65 | 0 | 1.0 | 3.0 | 0.00 | 0.00 | 0.00 | 100 | 958.0 |
| 20260831191107 | 65 | 0 | 1.0 | 3.0 | 0.00 | 0.00 | 0.00 | 100 | 958.0 |
| 20260831190905 | 65 | 0 | 1.0 | 3.0 | 0.00 | 0.00 | 0.00 | 100 | 958.0 |
| 20260831190804 | 65 | 0 | 1.0 | 3.0 | 0.00 | 0.00 | 0.00 | 100 | 957.9 |
| 20260831190701 | 65 | 0 | 1.0 | 3.0 | 0.00 | 0.00 | 0.00 | 100 | 957.9 |
| 20260831190458 | 65 | 0 | 1.0 | 3.0 | 0.00 | 0.00 | 0.00 | 100 | 957.8 |
| 20260831190255 | 65 | 0 | 0.0 | 4.0 | 0.00 | 0.00 | 0.00 | 100 | 957.9 |
| 20260831190052 | 65 | 0 | 1.0 | 4.0 | 0.00 | 0.00 | 0.00 | 100 | 957.9 |
| 20260831185848 | 65 | 0 | 1.0 | 3.0 | 0.00 | 0.00 | 0.00 | 100 | 957.8 |
| 20260831185646 | 65 | 0 | 1.0 | 3.0 | 0.00 | 0.00 | 0.00 | 100 | 957.9 |
| 20260831185443 | 65 | 0 | 1.0 | 3.0 | 0.00 | 0.00 | 0.00 | 100 | 957.9 |
| 20260831185240 | 65 | 0 | 1.0 | 3.0 | 0.00 | 0.00 | 0.00 | 100 | 957.8 |
| 20260831185037 | 65 | 0 | 1.0 | 3.0 | 0.00 | 0.00 | 0.00 | 100 | 957.7 |
| 20260831184937 | 66 | 227 | 1.0 | 3.0 | 0.00 | 0.00 | 0.00 | 100 | 957.8 |
| 20260831184834 | 66 | 237 | 1.0 | 3.0 | 0.00 | 0.00 | 0.00 | 100 | 957.7 |
| 20260831184631 | 66 | 241 | 1.0 | 4.0 | 0.00 | 0.00 | 0.00 | 100 | 957.8 |
| 20260831184429 | 66 | 0 | 1.0 | 4.0 | 0.00 | 0.00 | 0.00 | 100 | 957.7 |
| 20260831184225 | 66 | 0 | 1.0 | 4.0 | 0.00 | 0.00 | 0.00 | 100 | 957.8 |
| 20260831184023 | 66 | 0 | 1.0 | 4.0 | 0.00 | 0.00 | 0.00 | 100 | 957.7 |
| 20260831183820 | 66 | 0 | 1.0 | 5.0 | 0.00 | 0.00 | 0.00 | 100 | 957.7 |
| 20260831183720 | 66 | 0 | 1.0 | 5.0 | 0.00 | 0.00 | 0.00 | 100 | 957.8 |
| 20260831183617 | 66 | 0 | 1.0 | 5.0 | 0.00 | 0.00 | 0.00 | 100 | 957.8 |
| 20260831183415 | 66 | 0 | 1.0 | 3.0 | 0.00 | 0.00 | 0.00 | 100 | 957.7 |
| 20260831183212 | 66 | 0 | 1.0 | 3.0 | 0.00 | 0.00 | 0.00 | 100 | 957.8 |
| 20260831183111 | 66 | 0 | 1.0 | 3.0 | 0.00 | 0.00 | 0.00 | 100 | 957.8 |
| 20260831183008 | 66 | 0 | 1.0 | 3.0 | 0.00 | 0.00 | 0.00 | 100 | 957.8 |
| 20260831182805 | 66 | 0 | 1.0 | 3.0 | 0.00 | 0.00 | 0.00 | 100 | 957.8 |
| 20260831182602 | 66 | 0 | 1.0 | 4.0 | 0.00 | 0.00 | 0.00 | 100 | 957.8 |
| 20260831182501 | 66 | 0 | 1.0 | 6.0 | 0.00 | 0.00 | 0.00 | 100 | 957.8 |
| 20260831182359 | 66 | 222 | 1.0 | 6.0 | 0.00 | 0.00 | 0.00 | 100 | 957.7 |
| 20260831182156 | 66 | 214 | 1.0 | 6.0 | 0.00 | 0.00 | 0.00 | 100 | 957.8 |
| 20260831181939 | 66 | 0 | 1.0 | 3.0 | 0.00 | 0.00 | 0.00 | 100 | 957.8 |
| 20260831181838 | 66 | 0 | 1.0 | 3.0 | 0.00 | 0.00 | 0.00 | 100 | 957.8 |
| 20260831181736 | 66 | 0 | 1.0 | 3.0 | 0.00 | 0.00 | 0.00 | 100 | 957.8 |
| 20260831181533 | 66 | 0 | 1.0 | 5.0 | 0.00 | 0.00 | 0.00 | 100 | 957.7 |
| 20260831181329 | 67 | 0 | 1.0 | 5.0 | 0.00 | 0.00 | 0.00 | 100 | 957.8 |
| 20260831181228 | 67 | 0 | 1.0 | 5.0 | 0.00 | 0.00 | 0.00 | 100 | 957.8 |
| 20260831181126 | 67 | 0 | 1.0 | 5.0 | 0.00 | 0.00 | 0.00 | 100 | 957.8 |
| 20260831180923 | 67 | 0 | 1.0 | 5.0 | 0.00 | 0.00 | 0.00 | 100 | 957.7 |
| 20260831180719 | 67 | 0 | 1.0 | 4.0 | 0.00 | 0.00 | 0.00 | 100 | 957.6 |
| 20260831180618 | 68 | 0 | 1.0 | 4.0 | 0.00 | 0.00 | 0.00 | 100 | 957.6 |
| 20260831180516 | 68 | 0 | 1.0 | 4.0 | 0.00 | 0.00 | 0.00 | 100 | 957.6 |
| 20260831180313 | 67 | 0 | 1.0 | 4.0 | 0.00 | 0.00 | 0.00 | 100 | 957.6 |
| 20260831180110 | 67 | 0 | 1.0 | 4.0 | 0.00 | 0.00 | 0.00 | 100 | 957.6 |
| 20260831180009 | 67 | 0 | 1.0 | 4.0 | 0.00 | 0.00 | 0.00 | 100 | 957.6 |
| 20260831175907 | 67 | 0 | 1.0 | 3.0 | 0.00 | 0.00 | 0.00 | 100 | 957.5 |
| 20260831175704 | 67 | 0 | 1.0 | 4.0 | 0.00 | 0.00 | 0.00 | 100 | 957.6 |
| 20260831175501 | 68 | 0 | 1.0 | 4.0 | 0.00 | 0.00 | 0.00 | 100 | 957.5 |
| 20260831175400 | 68 | 0 | 1.0 | 4.0 | 0.00 | 0.00 | 0.00 | 100 | 957.6 |
| 20260831175257 | 68 | 0 | 1.0 | 4.0 | 0.00 | 0.00 | 0.00 | 100 | 957.4 |
| 20260831175054 | 68 | 0 | 1.0 | 4.0 | 0.00 | 0.00 | 0.00 | 100 | 957.5 |
| 20260831174851 | 68 | 0 | 1.0 | 4.0 | 0.00 | 0.00 | 0.00 | 100 | 957.5 |
| 20260831174749 | 68 | 0 | 1.0 | 4.0 | 0.00 | 0.00 | 0.00 | 100 | 957.3 |
| 20260831174647 | 69 | 0 | 1.0 | 4.0 | 0.00 | 0.00 | 0.00 | 100 | 957.5 |
| 20260831174444 | 69 | 0 | 1.0 | 4.0 | 0.00 | 0.00 | 0.00 | 100 | 957.3 |
| 20260831174241 | 69 | 0 | 1.0 | 2.0 | 0.00 | 0.00 | 0.00 | 100 | 957.4 |
| 20260831174140 | 69 | 0 | 0.0 | 2.0 | 0.00 | 0.00 | 0.00 | 100 | 957.5 |
| 20260831174038 | 69 | 0 | 1.0 | 3.0 | 0.00 | 0.00 | 0.00 | 100 | 957.4 |
| 20260831173834 | 69 | 0 | 1.0 | 4.0 | 0.00 | 0.00 | 0.00 | 100 | 957.5 |
| 20260831173631 | 69 | 0 | 1.0 | 4.0 | 0.00 | 0.00 | 0.00 | 100 | 957.5 |
| 20260831173530 | 69 | 0 | 1.0 | 3.0 | 0.00 | 0.00 | 0.00 | 100 | 957.4 |
| 20260831173428 | 70 | 0 | 1.0 | 3.0 | 0.00 | 0.00 | 0.00 | 100 | 957.4 |
| 20260831173225 | 70 | 0 | 1.0 | 4.0 | 0.00 | 0.00 | 0.00 | 100 | 957.4 |
| 20260831173021 | 70 | 0 | 1.0 | 4.0 | 0.00 | 0.00 | 0.00 | 100 | 957.3 |
| 20260831172921 | 70 | 0 | 1.0 | 4.0 | 0.00 | 0.00 | 0.00 | 100 | 957.3 |
| 20260831172819 | 70 | 0 | 1.0 | 4.0 | 0.00 | 0.00 | 0.00 | 100 | 957.3 |
| 20260831172616 | 70 | 0 | 1.0 | 3.0 | 0.00 | 0.00 | 0.00 | 100 | 957.3 |
| 20260831172413 | 70 | 0 | 1.0 | 3.0 | 0.00 | 0.00 | 0.00 | 100 | 957.3 |
| 20260831172211 | 70 | 0 | 1.0 | 3.0 | 0.00 | 0.00 | 0.00 | 100 | 957.3 |
| 20260831172007 | 70 | 0 | 1.0 | 3.0 | 0.00 | 0.00 | 0.00 | 100 | 957.3 |
| 20260831171805 | 71 | 0 | 1.0 | 4.0 | 0.00 | 0.00 | 0.00 | 100 | 957.3 |
| 20260831171704 | 71 | 0 | 1.0 | 4.0 | 0.00 | 0.00 | 0.00 | 100 | 957.2 |
| 20260831171601 | 71 | 223 | 1.0 | 4.0 | 0.00 | 0.00 | 0.00 | 100 | 957.3 |
| 20260831171358 | 71 | 234 | 1.0 | 5.0 | 0.00 | 0.00 | 0.00 | 100 | 957.2 |
| 20260831171155 | 71 | 227 | 1.0 | 5.0 | 0.00 | 0.00 | 0.00 | 100 | 957.2 |
| 20260831171055 | 71 | 0 | 1.0 | 5.0 | 0.00 | 0.00 | 0.00 | 100 | 957.2 |
| 20260831170952 | 71 | 222 | 1.0 | 4.0 | 0.00 | 0.00 | 0.00 | 100 | 957.1 |
| 20260831170749 | 71 | 213 | 1.0 | 4.0 | 0.00 | 0.00 | 0.00 | 100 | 957.1 |
| 20260831170546 | 71 | 0 | 1.0 | 4.0 | 0.00 | 0.00 | 0.00 | 100 | 957.1 |
| 20260831170445 | 71 | 0 | 1.0 | 5.0 | 0.00 | 0.00 | 0.00 | 100 | 957.2 |
| 20260831170344 | 71 | 0 | 1.0 | 6.0 | 0.00 | 0.00 | 0.00 | 100 | 957.2 |
| 20260831170140 | 71 | 214 | 1.0 | 6.0 | 0.00 | 0.00 | 0.00 | 100 | 957.3 |
| 20260831165938 | 71 | 0 | 1.0 | 5.0 | 0.00 | 0.00 | 0.00 | 100 | 957.3 |
| 20260831165837 | 71 | 0 | 1.0 | 5.0 | 0.00 | 0.00 | 0.00 | 100 | 957.2 |
| 20260831165734 | 71 | 0 | 1.0 | 2.0 | 0.00 | 0.00 | 0.00 | 100 | 957.2 |
| 20260831165531 | 71 | 0 | 1.0 | 2.0 | 0.00 | 0.00 | 0.00 | 100 | 957.2 |
| 20260831165328 | 72 | 0 | 0.0 | 4.0 | 0.00 | 0.00 | 0.00 | 100 | 957.2 |
| 20260831165227 | 72 | 0 | 1.0 | 4.0 | 0.00 | 0.00 | 0.00 | 100 | 957.2 |
| 20260831165125 | 71 | 0 | 1.0 | 4.0 | 0.00 | 0.00 | 0.00 | 100 | 957.2 |
| 20260831164922 | 71 | 217 | 1.0 | 5.0 | 0.00 | 0.00 | 0.00 | 100 | 957.1 |
| 20260831164718 | 72 | 237 | 1.0 | 5.0 | 0.00 | 0.00 | 0.00 | 100 | 957.2 |
| 20260831164618 | 71 | 0 | 1.0 | 5.0 | 0.00 | 0.00 | 0.00 | 100 | 957.1 |
| 20260831164515 | 72 | 229 | 1.0 | 6.0 | 0.00 | 0.00 | 0.00 | 100 | 957.2 |
| 20260831164312 | 72 | 230 | 1.0 | 6.0 | 0.00 | 0.00 | 0.00 | 100 | 957.1 |
| 20260831164109 | 72 | 221 | 1.0 | 6.0 | 0.00 | 0.00 | 0.00 | 100 | 957.1 |
| 20260831164009 | 72 | 219 | 2.0 | 6.0 | 0.00 | 0.00 | 0.00 | 100 | 957.1 |
| 20260831163907 | 72 | 218 | 2.0 | 6.0 | 0.00 | 0.00 | 0.00 | 100 | 957.0 |
| 20260831163703 | 72 | 0 | 1.0 | 6.0 | 0.00 | 0.00 | 0.00 | 100 | 957.1 |
| 20260831163500 | 72 | 0 | 1.0 | 6.0 | 0.00 | 0.00 | 0.00 | 100 | 957.0 |
| 20260831163359 | 72 | 0 | 1.0 | 6.0 | 0.00 | 0.00 | 0.00 | 100 | 956.9 |
| 20260831163257 | 73 | 0 | 1.0 | 5.0 | 0.00 | 0.00 | 0.00 | 100 | 957.0 |
| 20260831163054 | 73 | 0 | 1.0 | 5.0 | 0.00 | 0.00 | 0.00 | 100 | 957.1 |
| 20260831162851 | 73 | 0 | 1.0 | 6.0 | 0.00 | 0.00 | 0.00 | 100 | 957.1 |
| 20260831162750 | 73 | 0 | 1.0 | 6.0 | 0.00 | 0.00 | 0.00 | 100 | 957.0 |
| 20260831162648 | 73 | 0 | 1.0 | 4.0 | 0.00 | 0.00 | 0.00 | 100 | 957.1 |
| 20260831162444 | 73 | 0 | 1.0 | 6.0 | 0.00 | 0.00 | 0.00 | 100 | 957.0 |
| 20260831162242 | 73 | 0 | 1.0 | 6.0 | 0.00 | 0.00 | 0.00 | 100 | 957.0 |
| 20260831162142 | 73 | 217 | 1.0 | 6.0 | 0.00 | 0.00 | 0.00 | 100 | 957.1 |
| 20260831162039 | 74 | 218 | 2.0 | 6.0 | 0.00 | 0.00 | 0.00 | 100 | 957.1 |
| 20260831161836 | 74 | 225 | 1.0 | 6.0 | 0.00 | 0.00 | 0.00 | 100 | 957.1 |
| 20260831161632 | 74 | 0 | 1.0 | 3.0 | 0.00 | 0.00 | 0.00 | 100 | 957.1 |
| 20260831161532 | 74 | 0 | 1.0 | 4.0 | 0.00 | 0.00 | 0.00 | 100 | 956.9 |
| 20260831161429 | 74 | 243 | 2.0 | 6.0 | 0.00 | 0.00 | 0.00 | 100 | 956.9 |
| 20260831161225 | 73 | 242 | 2.0 | 6.0 | 0.00 | 0.00 | 0.00 | 100 | 957.0 |
| 20260831161022 | 73 | 232 | 2.0 | 8.0 | 0.00 | 0.00 | 0.00 | 100 | 957.0 |
| 20260831160922 | 73 | 244 | 2.0 | 11.0 | 0.00 | 0.00 | 0.00 | 100 | 957.0 |
| 20260831160819 | 73 | 244 | 2.0 | 11.0 | 0.00 | 0.00 | 0.00 | 100 | 957.0 |
| 20260831160616 | 73 | 250 | 3.0 | 11.0 | 0.00 | 0.00 | 0.00 | 100 | 956.9 |
| 20260831160413 | 73 | 245 | 3.0 | 8.0 | 0.00 | 0.00 | 0.00 | 100 | 957.0 |
| 20260831160313 | 73 | 236 | 2.0 | 8.0 | 0.00 | 0.00 | 0.00 | 100 | 957.0 |
| 20260831160210 | 73 | 225 | 2.0 | 8.0 | 0.00 | 0.00 | 0.00 | 100 | 957.0 |
| 20260831160008 | 73 | 233 | 2.0 | 8.0 | 0.00 | 0.00 | 0.00 | 100 | 956.7 |
| 20260831155804 | 74 | 234 | 2.0 | 9.0 | 0.00 | 0.00 | 0.00 | 100 | 956.8 |
| 20260831155704 | 74 | 238 | 3.0 | 10.0 | 0.00 | 0.00 | 0.00 | 100 | 956.8 |
| 20260831155602 | 74 | 237 | 3.0 | 10.0 | 0.00 | 0.00 | 0.00 | 100 | 956.8 |
| 20260831155358 | 74 | 225 | 2.0 | 10.0 | 0.00 | 0.00 | 0.00 | 100 | 956.9 |
| 20260831155156 | 74 | 227 | 2.0 | 9.0 | 0.00 | 0.00 | 0.00 | 100 | 956.8 |
| 20260831155055 | 74 | 233 | 3.0 | 9.0 | 0.00 | 0.00 | 0.00 | 100 | 956.9 |
| 20260831154953 | 74 | 240 | 2.0 | 9.0 | 0.00 | 0.00 | 0.00 | 100 | 956.9 |
| 20260831154749 | 74 | 249 | 2.0 | 6.0 | 0.00 | 0.00 | 0.00 | 100 | 956.8 |
| 20260831154546 | 73 | 0 | 1.0 | 7.0 | 0.00 | 0.00 | 0.00 | 100 | 956.8 |
| 20260831154446 | 73 | 0 | 1.0 | 5.0 | 0.00 | 0.00 | 0.00 | 100 | 956.9 |
| 20260831154342 | 73 | 231 | 1.0 | 5.0 | 0.00 | 0.00 | 0.00 | 100 | 956.8 |
| 20260831154139 | 72 | 234 | 2.0 | 9.0 | 0.00 | 0.00 | 0.00 | 100 | 956.8 |
| 20260831153925 | 72 | 235 | 2.0 | 9.0 | 0.00 | 0.00 | 0.00 | 100 | 956.9 |
| 20260831153825 | 72 | 234 | 2.0 | 7.0 | 0.00 | 0.00 | 0.00 | 100 | 956.9 |
| 20260831153723 | 73 | 235 | 2.0 | 7.0 | 0.00 | 0.00 | 0.00 | 100 | 956.9 |
| 20260831153520 | 73 | 233 | 2.0 | 7.0 | 0.00 | 0.00 | 0.00 | 100 | 956.8 |
| 20260831153317 | 73 | 233 | 2.0 | 6.0 | 0.00 | 0.00 | 0.00 | 100 | 956.9 |
| 20260831153215 | 73 | 237 | 2.0 | 8.0 | 0.00 | 0.00 | 0.00 | 100 | 956.8 |
| 20260831153113 | 73 | 239 | 2.0 | 11.0 | 0.00 | 0.00 | 0.00 | 100 | 956.9 |
| 20260831152909 | 73 | 241 | 2.0 | 11.0 | 0.00 | 0.00 | 0.00 | 100 | 956.9 |
| 20260831152706 | 73 | 233 | 2.0 | 10.0 | 0.00 | 0.00 | 0.00 | 100 | 956.9 |
| 20260831152606 | 73 | 218 | 2.0 | 10.0 | 0.00 | 0.00 | 0.00 | 100 | 956.8 |
| 20260831152503 | 73 | 218 | 2.0 | 10.0 | 0.00 | 0.00 | 0.00 | 100 | 956.8 |
| 20260831152300 | 73 | 240 | 2.0 | 10.0 | 0.00 | 0.00 | 0.00 | 100 | 956.9 |
| 20260831152057 | 73 | 253 | 2.0 | 11.0 | 0.00 | 0.00 | 0.00 | 100 | 956.9 |
| 20260831151956 | 73 | 256 | 3.0 | 11.0 | 0.00 | 0.00 | 0.00 | 100 | 956.8 |
| 20260831151853 | 73 | 260 | 4.0 | 11.0 | 0.00 | 0.00 | 0.00 | 100 | 956.8 |
| 20260831151650 | 73 | 249 | 3.0 | 9.0 | 0.00 | 0.00 | 0.00 | 100 | 956.9 |
| 20260831151447 | 74 | 237 | 3.0 | 9.0 | 0.00 | 0.00 | 0.00 | 100 | 956.8 |
| 20260831151244 | 73 | 235 | 3.0 | 9.0 | 0.00 | 0.00 | 0.00 | 100 | 956.8 |
| 20260831151041 | 73 | 242 | 3.0 | 12.0 | 0.00 | 0.00 | 0.00 | 100 | 956.8 |
| 20260831150837 | 73 | 248 | 4.0 | 12.0 | 0.00 | 0.00 | 0.00 | 100 | 956.8 |
| 20260831150737 | 73 | 241 | 4.0 | 12.0 | 0.00 | 0.00 | 0.00 | 100 | 956.8 |
| 20260831150634 | 73 | 251 | 4.0 | 12.0 | 0.00 | 0.00 | 0.00 | 100 | 956.8 |
| 20260831150431 | 73 | 246 | 4.0 | 12.0 | 0.00 | 0.00 | 0.00 | 100 | 956.9 |
| 20260831150228 | 73 | 244 | 3.0 | 12.0 | 0.00 | 0.00 | 0.00 | 100 | 956.9 |
| 20260831150128 | 73 | 239 | 2.0 | 12.0 | 0.00 | 0.00 | 0.00 | 100 | 956.9 |
| 20260831150025 | 73 | 233 | 2.0 | 8.0 | 0.00 | 0.00 | 0.00 | 100 | 956.9 |
| 20260831145822 | 74 | 248 | 2.0 | 9.0 | 0.00 | 0.00 | 0.00 | 100 | 956.9 |
| 20260831145618 | 73 | 236 | 2.0 | 9.0 | 0.00 | 0.00 | 0.00 | 100 | 956.9 |
| 20260831145517 | 73 | 221 | 2.0 | 6.0 | 0.00 | 0.00 | 0.00 | 100 | 956.9 |
| 20260831145415 | 73 | 229 | 2.0 | 12.0 | 0.00 | 0.00 | 0.00 | 100 | 956.9 |
| 20260831145211 | 73 | 228 | 3.0 | 12.0 | 0.00 | 0.00 | 0.00 | 100 | 956.9 |
| 20260831145008 | 73 | 233 | 3.0 | 15.0 | 0.00 | 0.00 | 0.00 | 100 | 956.8 |
| 20260831144908 | 73 | 236 | 3.0 | 15.0 | 0.00 | 0.00 | 0.00 | 100 | 956.8 |
| 20260831144805 | 73 | 254 | 4.0 | 14.0 | 0.00 | 0.00 | 0.00 | 100 | 956.8 |
| 20260831144602 | 73 | 262 | 7.0 | 15.0 | 0.00 | 0.00 | 0.00 | 100 | 956.8 |
| 20260831144359 | 73 | 261 | 8.0 | 15.0 | 0.00 | 0.00 | 0.00 | 100 | 956.7 |
| 20260831144259 | 73 | 262 | 8.0 | 14.0 | 0.00 | 0.00 | 0.00 | 100 | 956.9 |
| 20260831144157 | 73 | 260 | 6.0 | 13.0 | 0.00 | 0.00 | 0.00 | 100 | 956.8 |
| 20260831143954 | 73 | 259 | 6.0 | 15.0 | 0.00 | 0.00 | 0.00 | 100 | 956.8 |
| 20260831143750 | 73 | 269 | 7.0 | 17.0 | 0.00 | 0.00 | 0.00 | 100 | 956.9 |
| 20260831143650 | 73 | 272 | 9.0 | 22.0 | 0.00 | 0.00 | 0.00 | 100 | 956.9 |
| 20260831143548 | 72 | 271 | 8.0 | 22.0 | 0.00 | 0.00 | 0.00 | 100 | 956.9 |
| 20260831143345 | 73 | 258 | 7.0 | 22.0 | 0.00 | 0.00 | 0.00 | 100 | 956.9 |
| 20260831143141 | 73 | 251 | 4.0 | 17.0 | 0.00 | 0.00 | 0.00 | 100 | 956.9 |
| 20260831143041 | 73 | 251 | 5.0 | 17.0 | 0.00 | 0.00 | 0.00 | 100 | 956.8 |
| 20260831142939 | 73 | 249 | 4.0 | 17.0 | 0.00 | 0.00 | 0.00 | 100 | 956.9 |
| 20260831142735 | 73 | 261 | 5.0 | 17.0 | 0.00 | 0.00 | 0.00 | 100 | 957.0 |
| 20260831142532 | 72 | 259 | 6.0 | 15.0 | 0.00 | 0.00 | 0.00 | 100 | 957.0 |
| 20260831142431 | 73 | 246 | 5.0 | 13.0 | 0.00 | 0.00 | 0.00 | 100 | 957.0 |
| 20260831142327 | 73 | 245 | 5.0 | 13.0 | 0.00 | 0.00 | 0.00 | 100 | 957.0 |
| 20260831142124 | 72 | 247 | 4.0 | 13.0 | 0.00 | 0.00 | 0.00 | 100 | 956.9 |
| 20260831141921 | 72 | 257 | 4.0 | 13.0 | 0.00 | 0.00 | 0.00 | 100 | 956.8 |
| 20260831141717 | 71 | 253 | 6.0 | 16.0 | 0.00 | 0.00 | 0.00 | 100 | 957.0 |
| 20260831141515 | 71 | 245 | 6.0 | 16.0 | 0.00 | 0.00 | 0.00 | 100 | 956.9 |
| 20260831141312 | 71 | 251 | 7.0 | 17.0 | 0.00 | 0.00 | 0.00 | 100 | 956.8 |
| 20260831141210 | 71 | 251 | 7.0 | 17.0 | 0.00 | 0.00 | 0.00 | 100 | 956.8 |
| 20260831141108 | 71 | 254 | 7.0 | 17.0 | 0.00 | 0.00 | 0.00 | 100 | 956.8 |
| 20260831140904 | 71 | 250 | 5.0 | 17.0 | 0.00 | 0.00 | 0.00 | 100 | 957.0 |
| 20260831140701 | 71 | 258 | 7.0 | 18.0 | 0.00 | 0.00 | 0.00 | 100 | 956.9 |
| 20260831140600 | 71 | 262 | 8.0 | 24.0 | 0.00 | 0.00 | 0.00 | 100 | 956.9 |
| 20260831140458 | 71 | 259 | 7.0 | 24.0 | 0.00 | 0.00 | 0.00 | 100 | 957.0 |
| 20260831140254 | 71 | 255 | 6.0 | 20.0 | 0.00 | 0.00 | 0.00 | 100 | 957.0 |
| 20260831140051 | 71 | 266 | 9.0 | 20.0 | 0.00 | 0.00 | 0.00 | 100 | 957.0 |
| 20260831135950 | 71 | 266 | 10.0 | 20.0 | 0.00 | 0.00 | 0.00 | 100 | 956.8 |
| 20260831135847 | 71 | 267 | 10.0 | 22.0 | 0.00 | 0.00 | 0.00 | 100 | 957.0 |
| 20260831135644 | 71 | 267 | 8.0 | 22.0 | 0.00 | 0.00 | 0.00 | 100 | 956.9 |
| 20260831135441 | 71 | 267 | 8.0 | 16.0 | 0.00 | 0.00 | 0.00 | 100 | 956.9 |
| 20260831135340 | 71 | 267 | 8.0 | 16.0 | 0.00 | 0.00 | 0.00 | 100 | 956.9 |
| 20260831135238 | 71 | 273 | 10.0 | 20.0 | 0.00 | 0.00 | 0.00 | 100 | 956.9 |
| 20260831135035 | 71 | 280 | 11.0 | 20.0 | 0.00 | 0.00 | 0.00 | 100 | 956.9 |
| 20260831134832 | 71 | 281 | 13.0 | 21.0 | 0.00 | 0.00 | 0.00 | 100 | 956.6 |
| 20260831134731 | 71 | 282 | 13.0 | 21.0 | 0.00 | 0.00 | 0.00 | 100 | 956.8 |
| 20260831134629 | 71 | 278 | 14.0 | 24.0 | 0.00 | 0.00 | 0.00 | 100 | 956.6 |
| 20260831134426 | 71 | 285 | 18.0 | 29.0 | 0.00 | 0.00 | 0.00 | 100 | 956.6 |
| 20260831134223 | 71 | 289 | 18.0 | 29.0 | 0.00 | 0.00 | 0.00 | 100 | 956.7 |
| 20260831134122 | 71 | 291 | 17.0 | 29.0 | 0.00 | 0.00 | 0.00 | 100 | 956.5 |
| 20260831134020 | 71 | 291 | 16.0 | 29.0 | 0.00 | 0.00 | 0.00 | 100 | 956.7 |
| 20260831133817 | 71 | 297 | 18.0 | 29.0 | 0.00 | 0.00 | 0.00 | 100 | 956.8 |
| 20260831133613 | 71 | 301 | 17.0 | 27.0 | 0.00 | 0.00 | 0.00 | 100 | 956.5 |
| 20260831133513 | 71 | 300 | 17.0 | 27.0 | 0.00 | 0.00 | 0.00 | 100 | 956.6 |
| 20260831133410 | 72 | 299 | 16.0 | 24.0 | 0.00 | 0.00 | 0.00 | 100 | 956.5 |
| 20260831133207 | 73 | 298 | 15.0 | 23.0 | 0.00 | 0.00 | 0.00 | 100 | 956.4 |
| 20260831133004 | 73 | 299 | 13.0 | 18.0 | 0.00 | 0.00 | 0.00 | 100 | 956.7 |
| 20260831132904 | 74 | 299 | 12.0 | 18.0 | 0.00 | 0.00 | 0.00 | 100 | 956.6 |
| 20260831132801 | 74 | 301 | 10.0 | 18.0 | 0.00 | 0.00 | 0.00 | 100 | 956.7 |
| 20260831132558 | 74 | 298 | 7.0 | 14.0 | 0.00 | 0.00 | 0.00 | 100 | 956.6 |
| 20260831132355 | 75 | 297 | 7.0 | 12.0 | 0.00 | 0.00 | 0.00 | 100 | 956.7 |
| 20260831132254 | 75 | 296 | 7.0 | 12.0 | 0.00 | 0.00 | 0.00 | 100 | 956.8 |
| 20260831132151 | 75 | 288 | 8.0 | 12.0 | 0.00 | 0.00 | 0.00 | 100 | 956.7 |
| 20260831131948 | 76 | 277 | 8.0 | 18.0 | 0.00 | 0.00 | 0.00 | 100 | 956.7 |
| 20260831131745 | 77 | 264 | 5.0 | 18.0 | 0.00 | 0.00 | 0.00 | 100 | 956.7 |
| 20260831131644 | 79 | 255 | 4.0 | 18.0 | 0.00 | 0.00 | 0.00 | 100 | 956.7 |
| 20260831131542 | 79 | 250 | 2.0 | 9.0 | 0.00 | 0.00 | 0.00 | 100 | 956.7 |
| 20260831131340 | 79 | 0 | 1.0 | 9.0 | 0.00 | 0.00 | 0.00 | 100 | 956.7 |
| 20260831131137 | 79 | 246 | 2.0 | 11.0 | 0.00 | 0.00 | 0.00 | 100 | 956.7 |
| 20260831131036 | 79 | 233 | 2.0 | 11.0 | 0.00 | 0.00 | 0.00 | 100 | 956.8 |
| 20260831130934 | 79 | 235 | 2.0 | 11.0 | 0.00 | 0.00 | 0.00 | 100 | 956.8 |
| 20260831130730 | 79 | 216 | 2.0 | 9.0 | 0.00 | 0.00 | 0.00 | 100 | 956.8 |
| 20260831130527 | 79 | 228 | 2.0 | 10.0 | 0.00 | 0.00 | 0.00 | 100 | 956.8 |
| 20260831130426 | 79 | 223 | 2.0 | 10.0 | 0.00 | 0.00 | 0.00 | 100 | 956.7 |
| 20260831130324 | 79 | 240 | 2.0 | 10.0 | 0.00 | 0.00 | 0.00 | 100 | 956.8 |
| 20260831130109 | 79 | 216 | 2.0 | 8.0 | 0.00 | 0.00 | 0.00 | 100 | 956.8 |
| 20260831125905 | 79 | 218 | 2.0 | 11.0 | 0.00 | 0.00 | 0.00 | 100 | 956.8 |
| 20260831125804 | 79 | 220 | 2.0 | 11.0 | 0.00 | 0.00 | 0.00 | 100 | 956.9 |
| 20260831125701 | 79 | 221 | 2.0 | 11.0 | 0.00 | 0.00 | 0.00 | 100 | 956.9 |
| 20260831125458 | 79 | 218 | 2.0 | 6.0 | 0.00 | 0.00 | 0.00 | 100 | 956.9 |
| 20260831125255 | 79 | 213 | 2.0 | 9.0 | 0.00 | 0.00 | 0.00 | 100 | 956.9 |
| 20260831125155 | 79 | 214 | 2.0 | 9.0 | 0.00 | 0.00 | 0.00 | 100 | 957.0 |
| 20260831125052 | 79 | 215 | 2.0 | 9.0 | 0.00 | 0.00 | 0.00 | 100 | 956.9 |
| 20260831124849 | 79 | 230 | 2.0 | 9.0 | 0.00 | 0.00 | 0.00 | 100 | 956.9 |
| 20260831124646 | 79 | 228 | 2.0 | 11.0 | 0.00 | 0.00 | 0.00 | 100 | 956.9 |
| 20260831124545 | 79 | 221 | 2.0 | 11.0 | 0.00 | 0.00 | 0.00 | 100 | 956.8 |
| 20260831124443 | 79 | 211 | 2.0 | 11.0 | 0.00 | 0.00 | 0.00 | 100 | 956.9 |
| 20260831124240 | 79 | 222 | 3.0 | 17.0 | 0.00 | 0.00 | 0.00 | 100 | 956.9 |
| 20260831124037 | 79 | 233 | 3.0 | 17.0 | 0.00 | 0.00 | 0.00 | 100 | 956.9 |
| 20260831123834 | 80 | 0 | 2.0 | 10.0 | 0.00 | 0.00 | 0.00 | 100 | 956.8 |
| 20260831123631 | 80 | 228 | 3.0 | 18.0 | 0.00 | 0.00 | 0.00 | 100 | 956.7 |
| 20260831123428 | 80 | 223 | 3.0 | 18.0 | 0.00 | 0.00 | 0.00 | 100 | 956.9 |
| 20260831123327 | 80 | 224 | 3.0 | 18.0 | 0.00 | 0.00 | 0.00 | 100 | 956.8 |
| 20260831123224 | 80 | 235 | 3.0 | 12.0 | 0.00 | 0.00 | 0.00 | 100 | 956.8 |
| 20260831123021 | 80 | 236 | 3.0 | 10.0 | 0.00 | 0.00 | 0.00 | 100 | 956.9 |
| 20260831122818 | 80 | 240 | 3.0 | 11.0 | 0.00 | 0.00 | 0.00 | 100 | 956.8 |
| 20260831122717 | 80 | 241 | 3.0 | 12.0 | 0.00 | 0.00 | 0.00 | 100 | 956.8 |
| 20260831122615 | 80 | 240 | 4.0 | 12.0 | 0.00 | 0.00 | 0.00 | 100 | 956.7 |
| 20260831122411 | 80 | 233 | 4.0 | 20.0 | 0.00 | 0.00 | 0.00 | 100 | 956.7 |
| 20260831122208 | 81 | 233 | 3.0 | 20.0 | 0.00 | 0.00 | 0.00 | 100 | 956.8 |
| 20260831122005 | 80 | 244 | 2.0 | 12.0 | 0.00 | 0.00 | 0.00 | 100 | 956.7 |
| 20260831121802 | 80 | 0 | 1.0 | 8.0 | 0.00 | 0.00 | 0.00 | 100 | 956.7 |
| 20260831121559 | 80 | 225 | 2.0 | 12.0 | 0.00 | 0.00 | 0.00 | 100 | 956.7 |
| 20260831121457 | 80 | 209 | 2.0 | 12.0 | 0.00 | 0.00 | 0.00 | 100 | 956.7 |
| 20260831121355 | 80 | 211 | 2.0 | 12.0 | 0.00 | 0.00 | 0.00 | 100 | 956.6 |
| 20260831121153 | 80 | 226 | 3.0 | 14.0 | 0.00 | 0.00 | 0.00 | 100 | 956.6 |
| 20260831120949 | 80 | 240 | 4.0 | 16.0 | 0.00 | 0.00 | 0.00 | 100 | 956.7 |
| 20260831120849 | 80 | 238 | 3.0 | 16.0 | 0.00 | 0.00 | 0.00 | 100 | 956.7 |
| 20260831120746 | 80 | 232 | 3.0 | 16.0 | 0.00 | 0.00 | 0.00 | 100 | 956.7 |
| 20260831120543 | 80 | 239 | 3.0 | 16.0 | 0.00 | 0.00 | 0.00 | 100 | 956.7 |
| 20260831120340 | 80 | 245 | 4.0 | 16.0 | 0.00 | 0.00 | 0.00 | 100 | 956.7 |
| 20260831120240 | 80 | 240 | 3.0 | 16.0 | 0.00 | 0.00 | 0.00 | 100 | 956.5 |
| 20260831120137 | 80 | 235 | 3.0 | 13.0 | 0.00 | 0.00 | 0.00 | 100 | 956.8 |
| 20260831115933 | 81 | 228 | 2.0 | 10.0 | 0.00 | 0.00 | 0.00 | 100 | 956.7 |
| 20260831115730 | 81 | 231 | 3.0 | 10.0 | 0.00 | 0.00 | 0.00 | 100 | 956.7 |
| 20260831115629 | 81 | 231 | 2.0 | 10.0 | 0.00 | 0.00 | 0.00 | 100 | 956.7 |
| 20260831115527 | 81 | 225 | 2.0 | 10.0 | 0.00 | 0.00 | 0.00 | 100 | 956.7 |
| 20260831115323 | 81 | 217 | 2.0 | 10.0 | 0.00 | 0.00 | 0.00 | 100 | 956.8 |
| 20260831115121 | 81 | 218 | 2.0 | 10.0 | 0.00 | 0.00 | 0.00 | 100 | 956.8 |
| 20260831115020 | 81 | 212 | 2.0 | 10.0 | 0.00 | 0.00 | 0.00 | 100 | 956.7 |
| 20260831114918 | 81 | 199 | 2.0 | 13.0 | 0.00 | 0.00 | 0.00 | 100 | 956.7 |
| 20260831114715 | 81 | 179 | 3.0 | 13.0 | 0.00 | 0.00 | 0.00 | 100 | 956.8 |
| 20260831114511 | 81 | 179 | 3.0 | 13.0 | 0.00 | 0.00 | 0.00 | 100 | 956.5 |
| 20260831114410 | 81 | 175 | 2.0 | 13.0 | 0.00 | 0.00 | 0.00 | 100 | 956.7 |
| 20260831114308 | 81 | 175 | 2.0 | 9.0 | 0.00 | 0.00 | 0.00 | 100 | 956.7 |
| 20260831114105 | 81 | 173 | 2.0 | 7.0 | 0.00 | 0.00 | 0.00 | 100 | 956.6 |
| 20260831113902 | 80 | 180 | 2.0 | 11.0 | 0.00 | 0.00 | 0.00 | 100 | 956.7 |
| 20260831113801 | 80 | 179 | 3.0 | 11.0 | 0.00 | 0.00 | 0.00 | 100 | 956.7 |
| 20260831113659 | 80 | 182 | 3.0 | 11.0 | 0.00 | 0.00 | 0.00 | 100 | 956.7 |
| 20260831113456 | 80 | 200 | 2.0 | 10.0 | 0.00 | 0.00 | 0.00 | 100 | 956.8 |
| 20260831113253 | 81 | 211 | 2.0 | 7.0 | 0.00 | 0.00 | 0.00 | 100 | 956.9 |
| 20260831113151 | 81 | 205 | 2.0 | 7.0 | 0.00 | 0.00 | 0.00 | 100 | 956.7 |
| 20260831113049 | 81 | 205 | 2.0 | 7.0 | 0.00 | 0.00 | 0.00 | 100 | 956.8 |
| 20260831112846 | 81 | 214 | 2.0 | 8.0 | 0.00 | 0.00 | 0.00 | 100 | 956.8 |
| 20260831112643 | 82 | 210 | 2.0 | 8.0 | 0.00 | 0.00 | 0.00 | 100 | 956.7 |
| 20260831112542 | 83 | 205 | 2.0 | 10.0 | 0.00 | 0.00 | 0.00 | 100 | 956.8 |
| 20260831112439 | 83 | 206 | 2.0 | 10.0 | 0.00 | 0.00 | 0.00 | 100 | 956.8 |
| 20260831112236 | 83 | 239 | 4.0 | 18.0 | 0.00 | 0.00 | 0.00 | 100 | 956.9 |
| 20260831112033 | 82 | 253 | 4.0 | 18.0 | 0.00 | 0.00 | 0.00 | 100 | 957.0 |
| 20260831111932 | 82 | 263 | 3.0 | 18.0 | 0.00 | 0.00 | 0.00 | 100 | 956.8 |
| 20260831111830 | 84 | 264 | 2.0 | 15.0 | 0.00 | 0.00 | 0.00 | 100 | 957.0 |
| 20260831111627 | 83 | 184 | 2.0 | 9.0 | 0.00 | 0.00 | 0.00 | 100 | 957.1 |
| 20260831111423 | 83 | 180 | 3.0 | 12.0 | 0.00 | 0.00 | 0.00 | 100 | 957.0 |
| 20260831111322 | 83 | 187 | 3.0 | 12.0 | 0.00 | 0.00 | 0.00 | 100 | 957.0 |
| 20260831111220 | 82 | 183 | 3.0 | 12.0 | 0.00 | 0.00 | 0.00 | 100 | 957.0 |
| 20260831111017 | 82 | 152 | 4.0 | 16.0 | 0.00 | 0.00 | 0.00 | 100 | 956.9 |
| 20260831110813 | 81 | 146 | 2.0 | 16.0 | 0.00 | 0.00 | 0.00 | 100 | 956.9 |
| 20260831110610 | 80 | 186 | 2.0 | 5.0 | 0.00 | 0.00 | 0.00 | 100 | 957.0 |
| 20260831110407 | 80 | 204 | 2.0 | 5.0 | 0.00 | 0.00 | 0.00 | 100 | 957.1 |
| 20260831110204 | 79 | 207 | 2.0 | 7.0 | 0.00 | 0.00 | 0.00 | 100 | 957.1 |
| 20260831110001 | 79 | 236 | 2.0 | 8.0 | 0.00 | 0.00 | 0.00 | 100 | 957.1 |
| 20260831105758 | 79 | 249 | 2.0 | 8.0 | 0.00 | 0.00 | 0.00 | 100 | 957.1 |
| 20260831105555 | 79 | 221 | 3.0 | 8.0 | 0.00 | 0.00 | 0.00 | 100 | 957.2 |
| 20260831105455 | 79 | 202 | 2.0 | 8.0 | 0.00 | 0.00 | 0.00 | 100 | 957.2 |
| 20260831105352 | 79 | 174 | 2.0 | 8.0 | 0.00 | 0.00 | 0.00 | 100 | 957.2 |
| 20260831105149 | 79 | 171 | 1.0 | 5.0 | 0.00 | 0.00 | 0.00 | 100 | 957.2 |
| 20260831104945 | 79 | 193 | 1.0 | 5.0 | 0.00 | 0.00 | 0.00 | 100 | 957.1 |
| 20260831104845 | 79 | 193 | 2.0 | 7.0 | 0.00 | 0.00 | 0.00 | 100 | 957.1 |
| 20260831104742 | 79 | 199 | 2.0 | 7.0 | 0.00 | 0.00 | 0.00 | 100 | 957.3 |
| 20260831104539 | 78 | 211 | 2.0 | 7.0 | 0.00 | 0.00 | 0.00 | 100 | 957.2 |
| 20260831104336 | 78 | 234 | 2.0 | 7.0 | 0.00 | 0.00 | 0.00 | 100 | 957.1 |
| 20260831104235 | 79 | 230 | 2.0 | 5.0 | 0.00 | 0.00 | 0.00 | 100 | 957.2 |
| 20260831104132 | 78 | 222 | 2.0 | 7.0 | 0.00 | 0.00 | 0.00 | 100 | 957.3 |
| 20260831103929 | 78 | 232 | 2.0 | 8.0 | 0.00 | 0.00 | 0.00 | 100 | 957.1 |
| 20260831103725 | 78 | 226 | 2.0 | 8.0 | 0.00 | 0.00 | 0.00 | 100 | 957.2 |
| 20260831103625 | 78 | 213 | 2.0 | 8.0 | 0.00 | 0.00 | 0.00 | 100 | 957.2 |
| 20260831103523 | 78 | 203 | 2.0 | 11.0 | 0.00 | 0.00 | 0.00 | 100 | 957.3 |
| 20260831103319 | 78 | 214 | 2.0 | 11.0 | 0.00 | 0.00 | 0.00 | 100 | 957.2 |
| 20260831103116 | 77 | 213 | 2.0 | 6.0 | 0.00 | 0.00 | 0.00 | 100 | 957.3 |
| 20260831103016 | 77 | 211 | 2.0 | 6.0 | 0.00 | 0.00 | 0.00 | 100 | 957.4 |
| 20260831102913 | 77 | 208 | 2.0 | 6.0 | 0.00 | 0.00 | 0.00 | 100 | 957.4 |
| 20260831102710 | 77 | 210 | 1.0 | 6.0 | 0.00 | 0.00 | 0.00 | 100 | 957.5 |
| 20260831102507 | 77 | 224 | 1.0 | 7.0 | 0.00 | 0.00 | 0.00 | 100 | 957.4 |
| 20260831102406 | 77 | 220 | 2.0 | 7.0 | 0.00 | 0.00 | 0.00 | 100 | 957.4 |
| 20260831102306 | 77 | 218 | 2.0 | 7.0 | 0.00 | 0.00 | 0.00 | 100 | 957.4 |
| 20260831102051 | 77 | 222 | 2.0 | 8.0 | 0.00 | 0.00 | 0.00 | 100 | 957.4 |
| 20260831101848 | 77 | 233 | 2.0 | 8.0 | 0.00 | 0.00 | 0.00 | 100 | 957.4 |
| 20260831101747 | 77 | 239 | 2.0 | 8.0 | 0.00 | 0.00 | 0.00 | 100 | 957.4 |
| 20260831101645 | 77 | 0 | 1.0 | 8.0 | 0.00 | 0.00 | 0.00 | 100 | 957.4 |
| 20260831101441 | 77 | 0 | 1.0 | 6.0 | 0.00 | 0.00 | 0.00 | 100 | 957.3 |
| 20260831101238 | 77 | 0 | 2.0 | 10.0 | 0.00 | 0.00 | 0.00 | 100 | 957.4 |
| 20260831101137 | 77 | 238 | 2.0 | 12.0 | 0.00 | 0.00 | 0.00 | 100 | 957.4 |
| 20260831101035 | 76 | 229 | 2.0 | 12.0 | 0.00 | 0.00 | 0.00 | 100 | 957.4 |
| 20260831100831 | 76 | 225 | 2.0 | 12.0 | 0.00 | 0.00 | 0.00 | 100 | 957.3 |
| 20260831100628 | 77 | 215 | 2.0 | 7.0 | 0.00 | 0.00 | 0.00 | 100 | 957.4 |
| 20260831100527 | 77 | 221 | 2.0 | 7.0 | 0.00 | 0.00 | 0.00 | 100 | 957.4 |
| 20260831100424 | 77 | 221 | 2.0 | 10.0 | 0.00 | 0.00 | 0.00 | 100 | 957.4 |
| 20260831100221 | 77 | 221 | 2.0 | 10.0 | 0.00 | 0.00 | 0.00 | 100 | 957.4 |
| 20260831100018 | 77 | 228 | 1.0 | 6.0 | 0.00 | 0.00 | 0.00 | 100 | 957.4 |
| 20260831095917 | 77 | 223 | 1.0 | 6.0 | 0.00 | 0.00 | 0.00 | 100 | 957.4 |
| 20260831095814 | 77 | 227 | 2.0 | 12.0 | 0.00 | 0.00 | 0.00 | 100 | 957.4 |
| 20260831095611 | 77 | 233 | 2.0 | 12.0 | 0.00 | 0.00 | 0.00 | 100 | 957.4 |
| 20260831095408 | 78 | 234 | 2.0 | 12.0 | 0.00 | 0.00 | 0.00 | 100 | 957.4 |
| 20260831095307 | 78 | 219 | 2.0 | 10.0 | 0.00 | 0.00 | 0.00 | 100 | 957.4 |
| 20260831095204 | 78 | 230 | 2.0 | 10.0 | 0.00 | 0.00 | 0.00 | 100 | 957.4 |
| 20260831095001 | 78 | 227 | 3.0 | 10.0 | 0.00 | 0.00 | 0.00 | 100 | 957.4 |
| 20260831094758 | 78 | 235 | 2.0 | 9.0 | 0.00 | 0.00 | 0.00 | 100 | 957.5 |
| 20260831094658 | 78 | 237 | 2.0 | 8.0 | 0.00 | 0.00 | 0.00 | 100 | 957.5 |
| 20260831094555 | 78 | 235 | 2.0 | 8.0 | 0.00 | 0.00 | 0.00 | 100 | 957.4 |
| 20260831094351 | 78 | 237 | 2.0 | 8.0 | 0.00 | 0.00 | 0.00 | 100 | 957.5 |
| 20260831094149 | 78 | 228 | 4.0 | 19.0 | 0.00 | 0.00 | 0.00 | 100 | 957.4 |
| 20260831094048 | 79 | 243 | 5.0 | 22.0 | 0.00 | 0.00 | 0.00 | 100 | 957.3 |
| 20260831093946 | 79 | 242 | 5.0 | 22.0 | 0.00 | 0.00 | 0.00 | 100 | 957.3 |
| 20260831093743 | 80 | 244 | 4.0 | 22.0 | 0.00 | 0.00 | 0.00 | 100 | 957.3 |
| 20260831093540 | 82 | 221 | 2.0 | 12.0 | 0.00 | 0.00 | 0.00 | 100 | 957.2 |
| 20260831093439 | 82 | 219 | 2.0 | 12.0 | 0.00 | 0.00 | 0.00 | 100 | 957.3 |
| 20260831093336 | 82 | 220 | 3.0 | 12.0 | 0.00 | 0.00 | 0.00 | 100 | 957.3 |
| 20260831093133 | 82 | 228 | 2.0 | 11.0 | 0.00 | 0.00 | 0.00 | 100 | 957.3 |
| 20260831092930 | 81 | 198 | 3.0 | 18.0 | 0.00 | 0.00 | 0.00 | 100 | 957.4 |
| 20260831092829 | 81 | 188 | 3.0 | 18.0 | 0.00 | 0.00 | 0.00 | 100 | 957.4 |
| 20260831092727 | 81 | 192 | 3.0 | 18.0 | 0.00 | 0.00 | 0.00 | 100 | 957.3 |
| 20260831092524 | 81 | 189 | 3.0 | 17.0 | 0.00 | 0.00 | 0.00 | 100 | 957.2 |
| 20260831092321 | 80 | 189 | 4.0 | 17.0 | 0.00 | 0.00 | 0.00 | 100 | 957.2 |
| 20260831092118 | 80 | 180 | 4.0 | 14.0 | 0.00 | 0.00 | 0.00 | 100 | 957.2 |
| 20260831091914 | 80 | 179 | 4.0 | 14.0 | 0.00 | 0.00 | 0.00 | 100 | 957.3 |
| 20260831091712 | 80 | 193 | 4.0 | 13.0 | 0.00 | 0.00 | 0.00 | 100 | 957.3 |
| 20260831091611 | 80 | 197 | 3.0 | 12.0 | 0.00 | 0.00 | 0.00 | 100 | 957.2 |
| 20260831091508 | 80 | 187 | 4.0 | 15.0 | 0.00 | 0.00 | 0.00 | 100 | 957.2 |
| 20260831091305 | 80 | 184 | 6.0 | 23.0 | 0.00 | 0.00 | 0.00 | 100 | 957.2 |
| 20260831091102 | 80 | 188 | 5.0 | 23.0 | 0.00 | 0.00 | 0.00 | 100 | 957.2 |
| 20260831091002 | 80 | 189 | 4.0 | 23.0 | 0.00 | 0.00 | 0.00 | 100 | 957.3 |
| 20260831090859 | 80 | 198 | 4.0 | 14.0 | 0.00 | 0.00 | 0.00 | 100 | 957.2 |
| 20260831090656 | 80 | 199 | 3.0 | 17.0 | 0.00 | 0.00 | 0.00 | 100 | 957.2 |
| 20260831090453 | 80 | 186 | 4.0 | 17.0 | 0.00 | 0.00 | 0.00 | 100 | 957.2 |
| 20260831090352 | 80 | 184 | 4.0 | 17.0 | 0.00 | 0.00 | 0.00 | 100 | 957.3 |
| 20260831090250 | 80 | 188 | 4.0 | 16.0 | 0.00 | 0.00 | 0.00 | 100 | 957.2 |
| 20260831090047 | 80 | 188 | 3.0 | 12.0 | 0.00 | 0.00 | 0.00 | 100 | 957.2 |
| 20260831085844 | 79 | 185 | 4.0 | 14.0 | 0.00 | 0.00 | 0.00 | 100 | 957.2 |
| 20260831085640 | 79 | 180 | 4.0 | 16.0 | 0.00 | 0.00 | 0.00 | 100 | 957.3 |
| 20260831085437 | 78 | 178 | 4.0 | 16.0 | 0.00 | 0.00 | 0.00 | 100 | 957.1 |
| 20260831085234 | 79 | 188 | 3.0 | 13.0 | 0.00 | 0.00 | 0.00 | 100 | 957.2 |
| 20260831085133 | 79 | 186 | 3.0 | 12.0 | 0.00 | 0.00 | 0.00 | 100 | 957.2 |
| 20260831085032 | 79 | 174 | 4.0 | 13.0 | 0.00 | 0.00 | 0.00 | 100 | 957.1 |
| 20260831084828 | 79 | 175 | 3.0 | 13.0 | 0.00 | 0.00 | 0.00 | 100 | 957.1 |
| 20260831084625 | 79 | 188 | 3.0 | 12.0 | 0.00 | 0.00 | 0.00 | 100 | 957.2 |
| 20260831084524 | 79 | 186 | 4.0 | 14.0 | 0.00 | 0.00 | 0.00 | 100 | 957.1 |
| 20260831084421 | 79 | 181 | 5.0 | 14.0 | 0.00 | 0.00 | 0.00 | 100 | 957.2 |
| 20260831084219 | 79 | 190 | 4.0 | 14.0 | 0.00 | 0.00 | 0.00 | 100 | 957.2 |
| 20260831084015 | 79 | 213 | 3.0 | 13.0 | 0.00 | 0.00 | 0.00 | 100 | 957.2 |
| 20260831083914 | 79 | 207 | 3.0 | 13.0 | 0.00 | 0.00 | 0.00 | 100 | 957.1 |
| 20260831083812 | 79 | 181 | 4.0 | 15.0 | 0.00 | 0.00 | 0.00 | 100 | 957.2 |
| 20260831083609 | 79 | 170 | 4.0 | 15.0 | 0.00 | 0.00 | 0.00 | 100 | 957.2 |
| 20260831083406 | 77 | 140 | 3.0 | 10.0 | 0.00 | 0.00 | 0.00 | 100 | 957.1 |
| 20260831083305 | 76 | 128 | 2.0 | 9.0 | 0.00 | 0.00 | 0.00 | 100 | 957.3 |
| 20260831083203 | 76 | 84 | 2.0 | 6.0 | 0.00 | 0.00 | 0.00 | 100 | 957.3 |
| 20260831083000 | 75 | 53 | 2.0 | 5.0 | 0.00 | 0.00 | 0.00 | 100 | 957.3 |
| 20260831082757 | 75 | 37 | 2.0 | 4.0 | 0.00 | 0.00 | 0.00 | 100 | 957.3 |
| 20260831082656 | 75 | 22 | 2.0 | 4.0 | 0.00 | 0.00 | 0.00 | 100 | 957.2 |
| 20260831082555 | 74 | 31 | 2.0 | 4.0 | 0.00 | 0.00 | 0.00 | 100 | 957.4 |
| 20260831082351 | 74 | 49 | 3.0 | 4.0 | 0.00 | 0.00 | 0.00 | 100 | 957.3 |
| 20260831082148 | 74 | 81 | 2.0 | 4.0 | 0.00 | 0.00 | 0.00 | 100 | 957.2 |
| 20260831082047 | 75 | 65 | 2.0 | 4.0 | 0.00 | 0.00 | 0.00 | 100 | 957.3 |
| 20260831081945 | 74 | 25 | 2.0 | 5.0 | 0.00 | 0.00 | 0.00 | 100 | 957.3 |
| 20260831081742 | 73 | 8 | 3.0 | 5.0 | 0.00 | 0.00 | 0.00 | 100 | 957.3 |
| 20260831081538 | 73 | 354 | 4.0 | 6.0 | 0.00 | 0.00 | 0.00 | 100 | 957.3 |
| 20260831081437 | 73 | 355 | 3.0 | 6.0 | 0.00 | 0.00 | 0.00 | 100 | 957.4 |
| 20260831081336 | 73 | 3 | 3.0 | 6.0 | 0.00 | 0.00 | 0.00 | 100 | 957.4 |
| 20260831081132 | 73 | 17 | 2.0 | 4.0 | 0.00 | 0.00 | 0.00 | 100 | 957.4 |
| 20260831080929 | 72 | 340 | 3.0 | 6.0 | 0.00 | 0.00 | 0.00 | 100 | 957.4 |
| 20260831080828 | 72 | 345 | 3.0 | 6.0 | 0.00 | 0.00 | 0.00 | 100 | 957.4 |
| 20260831080726 | 73 | 358 | 3.0 | 6.0 | 0.00 | 0.00 | 0.00 | 100 | 957.4 |
| 20260831080523 | 73 | 81 | 3.0 | 6.0 | 0.00 | 0.00 | 0.00 | 100 | 957.3 |
| 20260831080320 | 73 | 85 | 2.0 | 4.0 | 0.00 | 0.00 | 0.00 | 100 | 957.4 |
| 20260831080117 | 72 | 46 | 2.0 | 4.0 | 0.00 | 0.00 | 0.00 | 100 | 957.5 |
| 20260831075914 | 72 | 12 | 2.0 | 4.0 | 0.00 | 0.00 | 0.00 | 100 | 957.5 |
| 20260831075711 | 72 | 24 | 2.0 | 4.0 | 0.00 | 0.00 | 0.00 | 100 | 957.5 |
| 20260831075507 | 72 | 51 | 2.0 | 4.0 | 0.00 | 0.00 | 0.00 | 100 | 957.3 |
| 20260831075306 | 72 | 86 | 2.0 | 4.0 | 0.00 | 0.00 | 0.00 | 100 | 957.3 |
| 20260831075101 | 72 | 87 | 2.0 | 5.0 | 0.00 | 0.00 | 0.00 | 100 | 957.4 |
| 20260831075001 | 72 | 84 | 2.0 | 5.0 | 0.00 | 0.00 | 0.00 | 100 | 957.6 |
| 20260831074859 | 72 | 93 | 2.0 | 4.0 | 0.00 | 0.00 | 0.00 | 100 | 957.6 |
| 20260831074656 | 72 | 132 | 1.0 | 4.0 | 0.00 | 0.00 | 0.00 | 100 | 957.4 |
| 20260831074453 | 71 | 126 | 2.0 | 3.0 | 0.00 | 0.00 | 0.00 | 100 | 957.5 |
| 20260831074353 | 71 | 117 | 2.0 | 3.0 | 0.00 | 0.00 | 0.00 | 100 | 957.5 |
| 20260831074237 | 70 | 95 | 2.0 | 4.0 | 0.00 | 0.00 | 0.00 | 100 | 957.5 |
| 20260831074034 | 70 | 82 | 2.0 | 4.0 | 0.00 | 0.00 | 0.00 | 100 | 957.5 |
| 20260831073831 | 69 | 21 | 3.0 | 4.0 | 0.00 | 0.00 | 0.00 | 100 | 957.5 |
| 20260831073730 | 69 | 10 | 3.0 | 5.0 | 0.00 | 0.00 | 0.00 | 100 | 957.5 |
| 20260831073628 | 69 | 4 | 2.0 | 5.0 | 0.00 | 0.00 | 0.00 | 100 | 957.5 |
| 20260831073424 | 69 | 24 | 2.0 | 5.0 | 0.00 | 0.00 | 0.00 | 100 | 957.5 |
| 20260831073221 | 70 | 93 | 1.0 | 3.0 | 0.00 | 0.00 | 0.00 | 100 | 957.5 |
| 20260831073121 | 70 | 86 | 2.0 | 3.0 | 0.00 | 0.00 | 0.00 | 100 | 957.5 |
| 20260831073019 | 69 | 82 | 2.0 | 3.0 | 0.00 | 0.00 | 0.00 | 100 | 957.5 |
| 20260831072815 | 69 | 77 | 2.0 | 4.0 | 0.00 | 0.00 | 0.00 | 100 | 957.6 |
| 20260831072612 | 69 | 47 | 2.0 | 4.0 | 0.00 | 0.00 | 0.00 | 100 | 957.6 |
| 20260831072511 | 69 | 33 | 2.0 | 4.0 | 0.00 | 0.00 | 0.00 | 100 | 957.7 |
| 20260831072408 | 69 | 24 | 2.0 | 4.0 | 0.00 | 0.00 | 0.00 | 100 | 957.6 |
| 20260831072206 | 69 | 47 | 1.0 | 4.0 | 0.00 | 0.00 | 0.00 | 100 | 957.7 |
| 20260831072002 | 69 | 59 | 1.0 | 3.0 | 0.00 | 0.00 | 0.00 | 100 | 957.7 |
| 20260831071901 | 69 | 55 | 1.0 | 3.0 | 0.00 | 0.00 | 0.00 | 100 | 957.7 |
| 20260831071759 | 69 | 54 | 1.0 | 3.0 | 0.00 | 0.00 | 0.00 | 100 | 957.7 |
| 20260831071556 | 67 | 4 | 2.0 | 4.0 | 0.00 | 0.00 | 0.00 | 100 | 957.7 |
| 20260831071353 | 67 | 359 | 2.0 | 4.0 | 0.00 | 0.00 | 0.00 | 100 | 957.7 |
| 20260831071252 | 67 | 3 | 2.0 | 4.0 | 0.00 | 0.00 | 0.00 | 100 | 957.7 |
| 20260831071150 | 67 | 8 | 1.0 | 4.0 | 0.00 | 0.00 | 0.00 | 100 | 957.7 |
| 20260831070947 | 67 | 340 | 2.0 | 3.0 | 0.00 | 0.00 | 0.00 | 100 | 957.7 |
| 20260831070744 | 67 | 348 | 2.0 | 3.0 | 0.00 | 0.00 | 0.00 | 100 | 957.7 |
| 20260831070644 | 67 | 350 | 2.0 | 3.0 | 0.00 | 0.00 | 0.00 | 100 | 957.8 |
| 20260831070541 | 67 | 348 | 2.0 | 4.0 | 0.00 | 0.00 | 0.00 | 100 | 957.6 |
| 20260831070338 | 67 | 300 | 1.0 | 3.0 | 0.00 | 0.00 | 0.00 | 100 | 957.6 |
| 20260831070134 | 66 | 307 | 2.0 | 3.0 | 0.00 | 0.00 | 0.00 | 100 | 957.7 |
| 20260831070033 | 66 | 331 | 2.0 | 3.0 | 0.00 | 0.00 | 0.00 | 100 | 957.7 |
| 20260831065931 | 66 | 345 | 1.0 | 3.0 | 0.00 | 0.00 | 0.00 | 100 | 957.7 |
| 20260831065727 | 66 | 15 | 1.0 | 3.0 | 0.00 | 0.00 | 0.00 | 100 | 957.8 |
| 20260831065524 | 65 | 349 | 1.0 | 4.0 | 0.00 | 0.00 | 0.00 | 100 | 957.7 |
| 20260831065424 | 65 | 346 | 2.0 | 4.0 | 0.00 | 0.00 | 0.00 | 100 | 957.7 |
| 20260831065321 | 64 | 344 | 2.0 | 4.0 | 0.00 | 0.00 | 0.00 | 100 | 957.7 |
| 20260831065117 | 64 | 349 | 2.0 | 3.0 | 0.00 | 0.00 | 0.00 | 100 | 957.8 |
| 20260831064915 | 64 | 355 | 1.0 | 3.0 | 0.00 | 0.00 | 0.00 | 100 | 957.7 |
| 20260831064712 | 64 | 350 | 2.0 | 4.0 | 0.00 | 0.00 | 0.00 | 100 | 957.7 |
| 20260831064510 | 64 | 359 | 2.0 | 4.0 | 0.00 | 0.00 | 0.00 | 100 | 957.7 |
| 20260831064306 | 63 | 4 | 2.0 | 3.0 | 0.00 | 0.00 | 0.00 | 100 | 957.8 |
| 20260831064205 | 63 | 2 | 2.0 | 3.0 | 0.00 | 0.00 | 0.00 | 100 | 957.8 |
| 20260831064103 | 63 | 2 | 2.0 | 3.0 | 0.00 | 0.00 | 0.00 | 100 | 957.8 |
| 20260831063900 | 62 | 359 | 2.0 | 3.0 | 0.00 | 0.00 | 0.00 | 100 | 957.8 |
| 20260831063657 | 62 | 355 | 2.0 | 3.0 | 0.00 | 0.00 | 0.00 | 100 | 957.8 |
| 20260831063557 | 62 | 1 | 2.0 | 4.0 | 0.00 | 0.00 | 0.00 | 100 | 957.8 |
| 20260831063454 | 62 | 1 | 3.0 | 4.0 | 0.00 | 0.00 | 0.00 | 100 | 957.7 |
| 20260831063251 | 62 | 1 | 2.0 | 4.0 | 0.00 | 0.00 | 0.00 | 100 | 957.7 |
| 20260831063048 | 62 | 3 | 2.0 | 3.0 | 0.00 | 0.00 | 0.00 | 100 | 957.8 |
| 20260831062947 | 62 | 3 | 2.0 | 3.0 | 0.00 | 0.00 | 0.00 | 100 | 957.8 |
| 20260831062845 | 62 | 2 | 2.0 | 3.0 | 0.00 | 0.00 | 0.00 | 100 | 957.7 |
| 20260831062642 | 62 | 350 | 2.0 | 3.0 | 0.00 | 0.00 | 0.00 | 100 | 957.8 |
| 20260831062439 | 62 | 356 | 2.0 | 4.0 | 0.00 | 0.00 | 0.00 | 100 | 957.8 |
| 20260831062338 | 62 | 0 | 2.0 | 4.0 | 0.00 | 0.00 | 0.00 | 100 | 957.8 |
| 20260831062236 | 62 | 2 | 2.0 | 4.0 | 0.00 | 0.00 | 0.00 | 100 | 957.8 |
| 20260831062033 | 62 | 354 | 2.0 | 4.0 | 0.00 | 0.00 | 0.00 | 100 | 957.9 |
| 20260831061830 | 61 | 353 | 2.0 | 4.0 | 0.00 | 0.00 | 0.00 | 100 | 957.8 |
| 20260831061729 | 62 | 348 | 2.0 | 4.0 | 0.00 | 0.00 | 0.00 | 100 | 957.9 |
| 20260831061627 | 62 | 346 | 2.0 | 4.0 | 0.00 | 0.00 | 0.00 | 100 | 958.0 |
| 20260831061424 | 62 | 355 | 2.0 | 2.0 | 0.00 | 0.00 | 0.00 | 100 | 957.9 |
| 20260831061221 | 62 | 9 | 2.0 | 3.0 | 0.00 | 0.00 | 0.00 | 100 | 957.9 |
| 20260831061018 | 62 | 8 | 1.0 | 2.0 | 0.00 | 0.00 | 0.00 | 100 | 957.9 |
| 20260831060815 | 62 | 0 | 0.0 | 3.0 | 0.00 | 0.00 | 0.00 | 100 | 958.0 |
| 20260831060612 | 61 | 0 | 0.0 | 3.0 | 0.00 | 0.00 | 0.00 | 100 | 958.0 |
| 20260831060512 | 61 | 0 | 0.0 | 3.0 | 0.00 | 0.00 | 0.00 | 100 | 957.9 |
| 20260831060409 | 61 | 0 | 0.0 | 2.0 | 0.00 | 0.00 | 0.00 | 100 | 957.9 |
| 20260831060206 | 60 | 96 | 1.0 | 2.0 | 0.00 | 0.00 | 0.00 | 100 | 957.9 |
| 20260831060003 | 60 | 82 | 1.0 | 2.0 | 0.00 | 0.00 | 0.00 | 100 | 957.8 |
| 20260831055902 | 60 | 61 | 1.0 | 2.0 | 0.00 | 0.00 | 0.00 | 100 | 957.8 |
| 20260831055800 | 60 | 47 | 1.0 | 2.0 | 0.00 | 0.00 | 0.00 | 100 | 957.8 |
| 20260831055557 | 60 | 50 | 1.0 | 2.0 | 0.00 | 0.00 | 0.00 | 100 | 957.9 |
| 20260831055354 | 60 | 54 | 1.0 | 2.0 | 0.00 | 0.00 | 0.00 | 100 | 957.9 |
| 20260831055254 | 60 | 38 | 2.0 | 2.0 | 0.00 | 0.00 | 0.00 | 100 | 957.9 |
| 20260831055151 | 60 | 26 | 2.0 | 2.0 | 0.00 | 0.00 | 0.00 | 100 | 957.9 |
| 20260831054947 | 60 | 11 | 2.0 | 2.0 | 0.00 | 0.00 | 0.00 | 100 | 957.9 |
| 20260831054744 | 60 | 359 | 2.0 | 3.0 | 0.00 | 0.00 | 0.00 | 100 | 957.9 |
| 20260831054540 | 61 | 353 | 2.0 | 3.0 | 0.00 | 0.00 | 0.00 | 100 | 957.9 |
| 20260831054337 | 61 | 342 | 2.0 | 2.0 | 0.00 | 0.00 | 0.00 | 100 | 957.9 |
| 20260831054135 | 62 | 333 | 1.0 | 2.0 | 0.00 | 0.00 | 0.00 | 100 | 957.9 |
| 20260831054034 | 62 | 329 | 1.0 | 2.0 | 0.00 | 0.00 | 0.00 | 100 | 958.0 |
| 20260831053932 | 62 | 328 | 1.0 | 3.0 | 0.00 | 0.00 | 0.00 | 100 | 958.0 |
| 20260831053728 | 61 | 338 | 1.0 | 3.0 | 0.00 | 0.00 | 0.00 | 100 | 958.0 |
| 20260831053526 | 61 | 347 | 1.0 | 3.0 | 0.00 | 0.00 | 0.00 | 100 | 958.0 |
| 20260831053425 | 62 | 1 | 1.0 | 2.0 | 0.00 | 0.00 | 0.00 | 100 | 958.0 |
| 20260831053323 | 62 | 20 | 0.0 | 2.0 | 0.00 | 0.00 | 0.00 | 100 | 958.1 |
| 20260831053120 | 62 | 0 | 0.0 | 1.0 | 0.00 | 0.00 | 0.00 | 100 | 958.0 |
| 20260831052916 | 61 | 0 | 0.0 | 1.0 | 0.00 | 0.00 | 0.00 | 100 | 958.2 |
| 20260831052816 | 61 | 0 | 0.0 | 1.0 | 0.00 | 0.00 | 0.00 | 100 | 958.1 |
| 20260831052714 | 61 | 0 | 0.0 | 1.0 | 0.00 | 0.00 | 0.00 | 100 | 958.1 |
| 20260831052510 | 61 | 129 | 0.0 | 3.0 | 0.00 | 0.00 | 0.00 | 100 | 958.1 |
| 20260831052308 | 61 | 128 | 0.0 | 3.0 | 0.00 | 0.00 | 0.00 | 100 | 958.0 |
| 20260831052105 | 60 | 123 | 0.0 | 1.0 | 0.00 | 0.00 | 0.00 | 100 | 958.0 |
| 20260831051902 | 60 | 0 | 1.0 | 1.0 | 0.00 | 0.00 | 0.00 | 100 | 958.1 |
| 20260831051659 | 60 | 0 | 0.0 | 2.0 | 0.00 | 0.00 | 0.00 | 100 | 958.0 |
| 20260831051558 | 59 | 0 | 0.0 | 2.0 | 0.00 | 0.00 | 0.00 | 100 | 958.0 |
| 20260831051456 | 59 | 0 | 0.0 | 2.0 | 0.00 | 0.00 | 0.00 | 100 | 957.9 |
| 20260831051253 | 59 | 0 | 0.0 | 2.0 | 0.00 | 0.00 | 0.00 | 100 | 958.1 |
| 20260831051049 | 58 | 0 | 0.0 | 2.0 | 0.00 | 0.00 | 0.00 | 100 | 957.9 |
| 20260831050949 | 58 | 0 | 0.0 | 2.0 | 0.00 | 0.00 | 0.00 | 100 | 958.0 |
| 20260831050847 | 58 | 0 | 0.0 | 2.0 | 0.00 | 0.00 | 0.00 | 100 | 958.0 |
| 20260831050644 | 58 | 0 | 0.0 | 1.0 | 0.00 | 0.00 | 0.00 | 100 | 957.9 |
| 20260831050442 | 58 | 0 | 0.0 | 1.0 | 0.00 | 0.00 | 0.00 | 100 | 957.9 |
| 20260831050225 | 58 | 0 | 0.0 | 1.0 | 0.00 | 0.00 | 0.00 | 100 | 958.0 |
| 20260831050022 | 58 | 147 | 1.0 | 1.0 | 0.00 | 0.00 | 0.00 | 100 | 958.0 |
| 20260831045820 | 57 | 157 | 1.0 | 2.0 | 0.00 | 0.00 | 0.00 | 100 | 957.9 |
| 20260831045719 | 57 | 159 | 1.0 | 2.0 | 0.00 | 0.00 | 0.00 | 100 | 957.9 |
| 20260831045616 | 57 | 154 | 1.0 | 2.0 | 0.00 | 0.00 | 0.00 | 100 | 957.8 |
| 20260831045413 | 57 | 0 | 0.0 | 2.0 | 0.00 | 0.00 | 0.00 | 100 | 958.0 |
| 20260831045209 | 57 | 0 | 1.0 | 3.0 | 0.00 | 0.00 | 0.00 | 100 | 957.9 |
| 20260831045109 | 56 | 269 | 2.0 | 4.0 | 0.00 | 0.00 | 0.00 | 100 | 958.0 |
| 20260831045006 | 56 | 292 | 2.0 | 4.0 | 0.00 | 0.00 | 0.00 | 100 | 957.9 |
| 20260831044803 | 55 | 298 | 3.0 | 4.0 | 0.00 | 0.00 | 0.00 | 100 | 957.9 |
| 20260831044600 | 55 | 302 | 3.0 | 4.0 | 0.00 | 0.00 | 0.00 | 100 | 958.0 |
| 20260831044459 | 55 | 304 | 2.0 | 4.0 | 0.00 | 0.00 | 0.00 | 100 | 958.0 |
| 20260831044357 | 55 | 312 | 2.0 | 4.0 | 0.00 | 0.00 | 0.00 | 100 | 957.9 |
| 20260831044154 | 55 | 318 | 3.0 | 5.0 | 0.00 | 0.00 | 0.00 | 100 | 957.9 |
| 20260831043950 | 55 | 320 | 4.0 | 5.0 | 0.00 | 0.00 | 0.00 | 100 | 957.9 |
| 20260831043850 | 55 | 325 | 4.0 | 5.0 | 0.00 | 0.00 | 0.00 | 100 | 957.9 |
| 20260831043748 | 55 | 331 | 3.0 | 4.0 | 0.00 | 0.00 | 0.00 | 100 | 957.9 |
| 20260831043545 | 56 | 347 | 2.0 | 4.0 | 0.00 | 0.00 | 0.00 | 100 | 957.9 |
| 20260831043342 | 56 | 61 | 2.0 | 3.0 | 0.00 | 0.00 | 0.00 | 100 | 957.9 |
| 20260831043139 | 56 | 83 | 2.0 | 3.0 | 0.00 | 0.00 | 0.00 | 100 | 957.8 |
| 20260831042936 | 56 | 82 | 2.0 | 3.0 | 0.00 | 0.00 | 0.00 | 100 | 957.9 |
| 20260831042733 | 56 | 84 | 2.0 | 3.0 | 0.00 | 0.00 | 0.00 | 100 | 957.8 |
| 20260831042632 | 56 | 91 | 2.0 | 3.0 | 0.00 | 0.00 | 0.00 | 100 | 957.7 |
| 20260831042530 | 56 | 98 | 2.0 | 3.0 | 0.00 | 0.00 | 0.00 | 100 | 957.7 |
| 20260831042327 | 56 | 119 | 2.0 | 3.0 | 0.00 | 0.00 | 0.00 | 100 | 957.7 |
| 20260831042123 | 57 | 131 | 3.0 | 4.0 | 0.00 | 0.00 | 0.00 | 100 | 957.7 |
| 20260831042022 | 57 | 132 | 2.0 | 4.0 | 0.00 | 0.00 | 0.00 | 100 | 957.7 |
| 20260831041920 | 57 | 132 | 2.0 | 4.0 | 0.00 | 0.00 | 0.00 | 100 | 957.7 |
| 20260831041717 | 58 | 0 | 1.0 | 4.0 | 0.00 | 0.00 | 0.00 | 100 | 957.7 |
| 20260831041513 | 57 | 0 | 0.0 | 1.0 | 0.00 | 0.00 | 0.00 | 100 | 957.8 |
| 20260831041413 | 57 | 294 | 0.0 | 1.0 | 0.00 | 0.00 | 0.00 | 100 | 957.8 |
| 20260831041311 | 57 | 0 | 0.0 | 1.0 | 0.00 | 0.00 | 0.00 | 100 | 957.8 |
| 20260831041108 | 57 | 0 | 0.0 | 1.0 | 0.00 | 0.00 | 0.00 | 100 | 957.8 |
| 20260831040905 | 57 | 0 | 0.0 | 1.0 | 0.00 | 0.00 | 0.00 | 100 | 957.9 |
| 20260831040804 | 57 | 0 | 0.0 | 1.0 | 0.00 | 0.00 | 0.00 | 100 | 957.9 |
| 20260831040702 | 57 | 0 | 0.0 | 1.0 | 0.00 | 0.00 | 0.00 | 100 | 957.8 |
| 20260831040458 | 57 | 331 | 1.0 | 1.0 | 0.00 | 0.00 | 0.00 | 100 | 958.0 |
| 20260831040255 | 57 | 325 | 1.0 | 2.0 | 0.00 | 0.00 | 0.00 | 100 | 958.1 |
| 20260831040156 | 57 | 325 | 1.0 | 2.0 | 0.00 | 0.00 | 0.00 | 100 | 958.0 |
| 20260831040052 | 57 | 312 | 2.0 | 2.0 | 0.00 | 0.00 | 0.00 | 100 | 958.0 |
| 20260831035849 | 57 | 305 | 2.0 | 3.0 | 0.00 | 0.00 | 0.00 | 100 | 958.0 |
| 20260831035646 | 57 | 309 | 2.0 | 3.0 | 0.00 | 0.00 | 0.00 | 100 | 958.0 |
| 20260831035443 | 57 | 325 | 2.0 | 3.0 | 0.00 | 0.00 | 0.00 | 100 | 958.1 |
| 20260831035240 | 57 | 332 | 2.0 | 2.0 | 0.00 | 0.00 | 0.00 | 100 | 958.0 |
| 20260831035036 | 57 | 330 | 2.0 | 3.0 | 0.00 | 0.00 | 0.00 | 100 | 958.0 |
| 20260831034833 | 58 | 328 | 2.0 | 2.0 | 0.00 | 0.00 | 0.00 | 100 | 958.0 |
| 20260831034630 | 58 | 335 | 1.0 | 2.0 | 0.00 | 0.00 | 0.00 | 100 | 958.0 |
| 20260831034426 | 58 | 317 | 1.0 | 1.0 | 0.00 | 0.00 | 0.00 | 100 | 958.0 |
| 20260831034326 | 57 | 310 | 1.0 | 1.0 | 0.00 | 0.00 | 0.00 | 100 | 957.9 |
| 20260831034223 | 57 | 305 | 1.0 | 1.0 | 0.00 | 0.00 | 0.00 | 100 | 958.0 |
| 20260831034020 | 57 | 301 | 0.0 | 1.0 | 0.00 | 0.00 | 0.00 | 100 | 957.9 |
| 20260831033818 | 57 | 0 | 0.0 | 1.0 | 0.00 | 0.00 | 0.00 | 100 | 957.9 |
| 20260831033614 | 57 | 0 | 0.0 | 1.0 | 0.00 | 0.00 | 0.00 | 100 | 957.9 |
| 20260831033412 | 57 | 0 | 0.0 | 1.0 | 0.00 | 0.00 | 0.00 | 100 | 957.8 |
| 20260831033208 | 57 | 0 | 0.0 | 1.0 | 0.00 | 0.00 | 0.00 | 100 | 957.9 |
| 20260831033108 | 57 | 0 | 0.0 | 1.0 | 0.00 | 0.00 | 0.00 | 100 | 957.9 |
| 20260831033005 | 57 | 0 | 0.0 | 1.0 | 0.00 | 0.00 | 0.00 | 100 | 957.8 |
| 20260831032802 | 57 | 0 | 0.0 | 1.0 | 0.00 | 0.00 | 0.00 | 100 | 957.9 |
| 20260831032559 | 57 | 285 | 1.0 | 3.0 | 0.00 | 0.00 | 0.00 | 100 | 957.9 |
| 20260831032458 | 57 | 288 | 2.0 | 3.0 | 0.00 | 0.00 | 0.00 | 100 | 957.9 |
| 20260831032356 | 57 | 289 | 2.0 | 3.0 | 0.00 | 0.00 | 0.00 | 100 | 957.9 |
| 20260831032153 | 57 | 293 | 2.0 | 3.0 | 0.00 | 0.00 | 0.00 | 100 | 957.9 |
| 20260831031949 | 57 | 296 | 2.0 | 4.0 | 0.00 | 0.00 | 0.00 | 100 | 958.0 |
| 20260831031849 | 57 | 298 | 3.0 | 4.0 | 0.00 | 0.00 | 0.00 | 100 | 958.0 |
| 20260831031746 | 57 | 300 | 3.0 | 4.0 | 0.00 | 0.00 | 0.00 | 100 | 958.0 |
| 20260831031543 | 57 | 305 | 3.0 | 4.0 | 0.00 | 0.00 | 0.00 | 100 | 958.0 |
| 20260831031340 | 56 | 302 | 2.0 | 3.0 | 0.00 | 0.00 | 0.00 | 100 | 957.9 |
| 20260831031238 | 56 | 299 | 2.0 | 3.0 | 0.00 | 0.00 | 0.00 | 100 | 957.9 |
| 20260831031136 | 56 | 297 | 2.0 | 3.0 | 0.00 | 0.00 | 0.00 | 100 | 958.0 |
| 20260831030933 | 56 | 303 | 2.0 | 3.0 | 0.00 | 0.00 | 0.00 | 100 | 957.9 |
| 20260831030730 | 56 | 314 | 2.0 | 3.0 | 0.00 | 0.00 | 0.00 | 100 | 958.0 |
| 20260831030629 | 56 | 322 | 2.0 | 3.0 | 0.00 | 0.00 | 0.00 | 100 | 958.0 |
| 20260831030526 | 56 | 338 | 2.0 | 2.0 | 0.00 | 0.00 | 0.00 | 100 | 958.0 |
| 20260831030324 | 56 | 337 | 2.0 | 3.0 | 0.00 | 0.00 | 0.00 | 100 | 957.9 |
| 20260831030120 | 55 | 315 | 2.0 | 3.0 | 0.00 | 0.00 | 0.00 | 100 | 957.9 |
| 20260831030019 | 55 | 297 | 2.0 | 3.0 | 0.00 | 0.00 | 0.00 | 100 | 957.9 |
| 20260831025917 | 55 | 289 | 2.0 | 3.0 | 0.00 | 0.00 | 0.00 | 100 | 958.0 |
| 20260831025713 | 55 | 285 | 2.0 | 2.0 | 0.00 | 0.00 | 0.00 | 100 | 957.9 |
| 20260831025510 | 55 | 302 | 2.0 | 2.0 | 0.00 | 0.00 | 0.00 | 100 | 957.9 |
| 20260831025307 | 55 | 310 | 1.0 | 2.0 | 0.00 | 0.00 | 0.00 | 100 | 957.9 |
| 20260831025105 | 56 | 311 | 1.0 | 2.0 | 0.00 | 0.00 | 0.00 | 100 | 957.9 |
| 20260831024902 | 56 | 0 | 1.0 | 1.0 | 0.00 | 0.00 | 0.00 | 100 | 957.8 |
| 20260831024659 | 56 | 92 | 1.0 | 2.0 | 0.00 | 0.00 | 0.00 | 100 | 958.0 |
| 20260831024456 | 56 | 95 | 2.0 | 2.0 | 0.00 | 0.00 | 0.00 | 100 | 957.9 |
| 20260831024252 | 56 | 99 | 2.0 | 4.0 | 0.00 | 0.00 | 0.00 | 100 | 957.9 |
| 20260831024152 | 56 | 99 | 2.0 | 4.0 | 0.00 | 0.00 | 0.00 | 100 | 957.9 |
| 20260831024049 | 56 | 100 | 1.0 | 4.0 | 0.00 | 0.00 | 0.00 | 100 | 957.9 |
| 20260831023846 | 56 | 246 | 1.0 | 2.0 | 0.00 | 0.00 | 0.00 | 100 | 957.9 |
| 20260831023642 | 56 | 259 | 2.0 | 4.0 | 0.00 | 0.00 | 0.00 | 100 | 958.0 |
| 20260831023542 | 56 | 266 | 2.0 | 4.0 | 0.00 | 0.00 | 0.00 | 100 | 958.0 |
| 20260831023246 | 56 | 283 | 3.0 | 4.0 | 0.00 | 0.00 | 0.00 | 100 | 958.0 |
| 20260831023145 | 56 | 283 | 3.0 | 4.0 | 0.00 | 0.00 | 0.00 | 100 | 958.0 |
| 20260831023042 | 56 | 285 | 3.0 | 4.0 | 0.00 | 0.00 | 0.00 | 100 | 958.0 |
| 20260831022839 | 56 | 289 | 4.0 | 5.0 | 0.00 | 0.00 | 0.00 | 100 | 958.0 |
| 20260831022635 | 56 | 294 | 4.0 | 5.0 | 0.00 | 0.00 | 0.00 | 100 | 958.1 |
| 20260831022534 | 56 | 300 | 4.0 | 5.0 | 0.00 | 0.00 | 0.00 | 100 | 958.2 |
| 20260831022432 | 56 | 304 | 3.0 | 4.0 | 0.00 | 0.00 | 0.00 | 100 | 958.1 |
| 20260831022229 | 56 | 314 | 3.0 | 4.0 | 0.00 | 0.00 | 0.00 | 100 | 958.2 |
| 20260831022026 | 56 | 316 | 3.0 | 4.0 | 0.00 | 0.00 | 0.00 | 100 | 958.1 |
| 20260831021912 | 56 | 317 | 3.0 | 4.0 | 0.00 | 0.00 | 0.00 | 100 | 958.0 |
| 20260831021810 | 56 | 317 | 3.0 | 4.0 | 0.00 | 0.00 | 0.00 | 100 | 958.1 |
| 20260831021606 | 56 | 320 | 4.0 | 5.0 | 0.00 | 0.00 | 0.00 | 100 | 958.1 |
| 20260831021404 | 56 | 319 | 4.0 | 5.0 | 0.00 | 0.00 | 0.00 | 100 | 958.2 |
| 20260831021303 | 56 | 318 | 4.0 | 5.0 | 0.00 | 0.00 | 0.00 | 100 | 958.1 |
| 20260831021201 | 56 | 316 | 4.0 | 5.0 | 0.00 | 0.00 | 0.00 | 100 | 958.1 |
| 20260831020958 | 56 | 307 | 4.0 | 4.0 | 0.00 | 0.00 | 0.00 | 100 | 958.0 |
| 20260831020755 | 56 | 304 | 3.0 | 4.0 | 0.00 | 0.00 | 0.00 | 100 | 958.1 |
| 20260831020655 | 56 | 302 | 4.0 | 5.0 | 0.00 | 0.00 | 0.00 | 100 | 958.0 |
| 20260831020552 | 56 | 302 | 4.0 | 5.0 | 0.00 | 0.00 | 0.00 | 100 | 958.1 |
| 20260831020349 | 56 | 307 | 4.0 | 5.0 | 0.00 | 0.00 | 0.00 | 100 | 958.1 |
| 20260831020146 | 56 | 306 | 4.0 | 5.0 | 0.00 | 0.00 | 0.00 | 100 | 958.1 |
| 20260831020046 | 56 | 306 | 4.0 | 5.0 | 0.00 | 0.00 | 0.00 | 100 | 958.1 |
| 20260831015943 | 56 | 304 | 4.0 | 5.0 | 0.00 | 0.00 | 0.00 | 100 | 958.1 |
| 20260831015740 | 56 | 315 | 3.0 | 4.0 | 0.00 | 0.00 | 0.00 | 100 | 958.1 |
| 20260831015537 | 57 | 329 | 3.0 | 4.0 | 0.00 | 0.00 | 0.00 | 100 | 958.2 |
| 20260831015436 | 57 | 337 | 3.0 | 4.0 | 0.00 | 0.00 | 0.00 | 100 | 958.1 |
| 20260831015330 | 57 | 345 | 3.0 | 4.0 | 0.00 | 0.00 | 0.00 | 100 | 958.2 |
| 20260831015127 | 58 | 346 | 3.0 | 4.0 | 0.00 | 0.00 | 0.00 | 100 | 958.1 |
| 20260831014924 | 58 | 341 | 3.0 | 4.0 | 0.00 | 0.00 | 0.00 | 100 | 958.1 |
| 20260831014824 | 58 | 340 | 3.0 | 4.0 | 0.00 | 0.00 | 0.00 | 100 | 958.2 |
| 20260831014722 | 58 | 339 | 3.0 | 3.0 | 0.00 | 0.00 | 0.00 | 100 | 958.2 |
| 20260831014518 | 58 | 334 | 2.0 | 3.0 | 0.00 | 0.00 | 0.00 | 100 | 958.1 |
| 20260831014315 | 58 | 309 | 2.0 | 2.0 | 0.00 | 0.00 | 0.00 | 100 | 958.2 |
| 20260831014214 | 58 | 304 | 2.0 | 3.0 | 0.00 | 0.00 | 0.00 | 100 | 958.1 |
| 20260831014111 | 58 | 303 | 2.0 | 3.0 | 0.00 | 0.00 | 0.00 | 100 | 958.2 |
| 20260831013909 | 58 | 302 | 2.0 | 3.0 | 0.00 | 0.00 | 0.00 | 100 | 958.0 |
| 20260831013706 | 58 | 283 | 2.0 | 3.0 | 0.00 | 0.00 | 0.00 | 100 | 958.1 |
| 20260831013605 | 58 | 273 | 2.0 | 3.0 | 0.00 | 0.00 | 0.00 | 100 | 958.1 |
| 20260831013502 | 57 | 263 | 1.0 | 2.0 | 0.00 | 0.00 | 0.00 | 100 | 958.2 |
| 20260831013259 | 57 | 273 | 1.0 | 2.0 | 0.00 | 0.00 | 0.00 | 100 | 958.2 |
| 20260831013056 | 57 | 284 | 1.0 | 3.0 | 0.00 | 0.00 | 0.00 | 100 | 958.1 |
| 20260831012955 | 57 | 289 | 2.0 | 3.0 | 0.00 | 0.00 | 0.00 | 100 | 958.2 |
| 20260831012852 | 57 | 293 | 2.0 | 3.0 | 0.00 | 0.00 | 0.00 | 100 | 958.1 |
| 20260831012649 | 57 | 304 | 3.0 | 4.0 | 0.00 | 0.00 | 0.00 | 100 | 958.1 |
| 20260831012446 | 57 | 310 | 2.0 | 4.0 | 0.00 | 0.00 | 0.00 | 100 | 958.1 |
| 20260831012346 | 57 | 311 | 2.0 | 4.0 | 0.00 | 0.00 | 0.00 | 100 | 958.1 |
| 20260831012243 | 57 | 312 | 1.0 | 3.0 | 0.00 | 0.00 | 0.00 | 100 | 958.1 |
| 20260831012041 | 57 | 0 | 0.0 | 2.0 | 0.00 | 0.00 | 0.00 | 100 | 958.2 |
| 20260831011838 | 57 | 320 | 0.0 | 1.0 | 0.00 | 0.00 | 0.00 | 100 | 958.2 |
| 20260831011737 | 57 | 320 | 1.0 | 1.0 | 0.00 | 0.00 | 0.00 | 100 | 958.2 |
| 20260831011635 | 57 | 318 | 1.0 | 1.0 | 0.00 | 0.00 | 0.00 | 100 | 958.4 |
| 20260831011431 | 57 | 312 | 1.0 | 1.0 | 0.00 | 0.00 | 0.00 | 100 | 958.3 |
| 20260831011228 | 57 | 312 | 1.0 | 2.0 | 0.00 | 0.00 | 0.00 | 100 | 958.3 |
| 20260831011127 | 57 | 308 | 1.0 | 2.0 | 0.00 | 0.00 | 0.00 | 100 | 958.3 |
| 20260831011025 | 57 | 320 | 1.0 | 2.0 | 0.00 | 0.00 | 0.00 | 100 | 958.2 |
| 20260831010821 | 57 | 318 | 2.0 | 2.0 | 0.00 | 0.00 | 0.00 | 100 | 958.2 |
| 20260831010618 | 57 | 324 | 2.0 | 2.0 | 0.00 | 0.00 | 0.00 | 100 | 958.3 |
| 20260831010518 | 57 | 324 | 2.0 | 2.0 | 0.00 | 0.00 | 0.00 | 100 | 958.2 |
| 20260831010416 | 57 | 329 | 2.0 | 2.0 | 0.00 | 0.00 | 0.00 | 100 | 958.3 |
| 20260831010213 | 57 | 330 | 2.0 | 2.0 | 0.00 | 0.00 | 0.00 | 100 | 958.3 |
| 20260831010010 | 57 | 332 | 2.0 | 2.0 | 0.00 | 0.00 | 0.00 | 100 | 958.4 |
| 20260831005806 | 57 | 342 | 2.0 | 2.0 | 0.00 | 0.00 | 0.00 | 100 | 958.4 |
| 20260831005604 | 57 | 339 | 2.0 | 3.0 | 0.00 | 0.00 | 0.00 | 100 | 958.4 |
| 20260831005400 | 57 | 337 | 2.0 | 3.0 | 0.00 | 0.00 | 0.00 | 100 | 958.3 |
| 20260831005259 | 57 | 343 | 2.0 | 4.0 | 0.00 | 0.00 | 0.00 | 100 | 958.4 |
| 20260831005153 | 58 | 343 | 2.0 | 4.0 | 0.00 | 0.00 | 0.00 | 100 | 958.4 |
| 20260831004949 | 58 | 338 | 2.0 | 4.0 | 0.00 | 0.00 | 0.00 | 100 | 958.4 |
| 20260831004746 | 58 | 317 | 3.0 | 4.0 | 0.00 | 0.00 | 0.00 | 100 | 958.4 |
| 20260831004645 | 58 | 313 | 3.0 | 4.0 | 0.00 | 0.00 | 0.00 | 100 | 958.4 |
| 20260831004543 | 58 | 311 | 3.0 | 4.0 | 0.00 | 0.00 | 0.00 | 100 | 958.5 |
| 20260831004340 | 58 | 311 | 4.0 | 5.0 | 0.00 | 0.00 | 0.00 | 100 | 958.4 |
| 20260831004137 | 58 | 311 | 4.0 | 5.0 | 0.00 | 0.00 | 0.00 | 100 | 958.4 |
| 20260831004036 | 58 | 311 | 4.0 | 5.0 | 0.00 | 0.00 | 0.00 | 100 | 958.4 |
| 20260831003934 | 58 | 315 | 4.0 | 5.0 | 0.00 | 0.00 | 0.00 | 100 | 958.4 |
| 20260831003731 | 58 | 320 | 4.0 | 5.0 | 0.00 | 0.00 | 0.00 | 100 | 958.4 |
| 20260831003528 | 58 | 318 | 3.0 | 4.0 | 0.00 | 0.00 | 0.00 | 100 | 958.4 |
| 20260831003325 | 58 | 312 | 3.0 | 4.0 | 0.00 | 0.00 | 0.00 | 100 | 958.5 |
| 20260831003121 | 58 | 307 | 3.0 | 4.0 | 0.00 | 0.00 | 0.00 | 100 | 958.5 |
| 20260831002918 | 58 | 306 | 4.0 | 5.0 | 0.00 | 0.00 | 0.00 | 100 | 958.5 |
| 20260831002818 | 58 | 303 | 4.0 | 6.0 | 0.00 | 0.00 | 0.00 | 100 | 958.6 |
| 20260831002715 | 58 | 305 | 4.0 | 6.0 | 0.00 | 0.00 | 0.00 | 100 | 958.4 |
| 20260831002512 | 57 | 305 | 4.0 | 6.0 | 0.00 | 0.00 | 0.00 | 100 | 958.5 |
| 20260831002310 | 57 | 305 | 4.0 | 6.0 | 0.00 | 0.00 | 0.00 | 100 | 958.4 |
| 20260831002209 | 58 | 304 | 5.0 | 6.0 | 0.00 | 0.00 | 0.00 | 100 | 958.5 |
| 20260831002106 | 57 | 305 | 5.0 | 6.0 | 0.00 | 0.00 | 0.00 | 100 | 958.4 |
| 20260831001903 | 57 | 308 | 5.0 | 6.0 | 0.00 | 0.00 | 0.00 | 100 | 958.5 |
| 20260831001700 | 57 | 314 | 5.0 | 7.0 | 0.00 | 0.00 | 0.00 | 100 | 958.4 |
| 20260831001559 | 57 | 314 | 5.0 | 7.0 | 0.00 | 0.00 | 0.00 | 100 | 958.5 |
| 20260831001456 | 57 | 314 | 5.0 | 7.0 | 0.00 | 0.00 | 0.00 | 100 | 958.4 |
| 20260831001253 | 58 | 318 | 4.0 | 6.0 | 0.00 | 0.00 | 0.00 | 100 | 958.4 |
| 20260831001050 | 58 | 319 | 4.0 | 6.0 | 0.00 | 0.00 | 0.00 | 100 | 958.5 |
| 20260831000950 | 58 | 319 | 4.0 | 6.0 | 0.00 | 0.00 | 0.00 | 100 | 958.4 |
| 20260831000847 | 58 | 319 | 4.0 | 6.0 | 0.00 | 0.00 | 0.00 | 100 | 958.3 |
| 20260831000645 | 58 | 318 | 4.0 | 6.0 | 0.00 | 0.00 | 0.00 | 100 | 958.4 |
| 20260831000442 | 58 | 314 | 5.0 | 7.0 | 0.00 | 0.00 | 0.00 | 100 | 958.4 |
| 20260831000341 | 58 | 314 | 5.0 | 7.0 | 0.00 | 0.00 | 0.00 | 100 | 958.5 |
| 20260831000238 | 58 | 314 | 5.0 | 7.0 | 0.00 | 0.00 | 0.00 | 100 | 958.4 |
| 20260831000034 | 58 | 314 | 5.0 | 6.0 | 0.00 | 0.00 | 0.00 | 100 | 958.4 |
| 20260830235832 | 58 | 313 | 5.0 | 6.0 | 0.00 | 0.00 | 0.00 | 100 | 958.3 |
| 20260830235628 | 58 | 314 | 4.0 | 6.0 | 0.00 | 0.00 | 0.00 | 100 | 958.4 |
| 20260830235425 | 59 | 315 | 5.0 | 6.0 | 0.00 | 0.00 | 0.00 | 100 | 958.4 |
| 20260830235221 | 59 | 313 | 5.0 | 7.0 | 0.00 | 0.00 | 0.00 | 100 | 958.5 |
| 20260830235120 | 59 | 312 | 5.0 | 7.0 | 0.00 | 0.00 | 0.00 | 100 | 958.5 |
| 20260830235015 | 59 | 311 | 5.0 | 6.0 | 0.00 | 0.00 | 0.00 | 100 | 958.4 |
| 20260830234811 | 59 | 311 | 5.0 | 6.0 | 0.00 | 0.00 | 0.00 | 100 | 958.5 |
| 20260830234608 | 59 | 309 | 4.0 | 5.0 | 0.00 | 0.00 | 0.00 | 100 | 958.5 |
| 20260830234507 | 59 | 310 | 4.0 | 5.0 | 0.00 | 0.00 | 0.00 | 100 | 958.5 |
| 20260830234405 | 58 | 310 | 4.0 | 5.0 | 0.00 | 0.00 | 0.00 | 100 | 958.4 |
| 20260830234201 | 59 | 326 | 4.0 | 4.0 | 0.00 | 0.00 | 0.00 | 100 | 958.4 |
| 20260830233945 | 59 | 332 | 4.0 | 4.0 | 0.00 | 0.00 | 0.00 | 100 | 958.5 |
| 20260830233844 | 59 | 330 | 4.0 | 4.0 | 0.00 | 0.00 | 0.00 | 100 | 958.4 |
| 20260830233742 | 59 | 333 | 4.0 | 4.0 | 0.00 | 0.00 | 0.00 | 100 | 958.5 |
| 20260830233538 | 59 | 324 | 3.0 | 4.0 | 0.00 | 0.00 | 0.00 | 100 | 958.5 |
| 20260830233335 | 59 | 314 | 3.0 | 5.0 | 0.00 | 0.00 | 0.00 | 100 | 958.6 |
| 20260830233234 | 59 | 311 | 3.0 | 5.0 | 0.00 | 0.00 | 0.00 | 100 | 958.6 |
| 20260830233132 | 59 | 308 | 3.0 | 5.0 | 0.00 | 0.00 | 0.00 | 100 | 958.5 |
| 20260830232929 | 59 | 306 | 3.0 | 4.0 | 0.00 | 0.00 | 0.00 | 100 | 958.5 |
| 20260830232725 | 59 | 308 | 4.0 | 4.0 | 0.00 | 0.00 | 0.00 | 100 | 958.6 |
| 20260830232625 | 59 | 308 | 4.0 | 4.0 | 0.00 | 0.00 | 0.00 | 100 | 958.6 |
| 20260830232522 | 58 | 309 | 4.0 | 5.0 | 0.00 | 0.00 | 0.00 | 100 | 958.6 |
| 20260830232320 | 59 | 313 | 4.0 | 5.0 | 0.00 | 0.00 | 0.00 | 100 | 958.5 |